| time (UTC) | temp C | wind direction | speed KPH | gust KPH | rain 1hr cm | rain 24hr cm | rain mn cm | humidity % | barometer mb |
| 20260506181210 | 16 | 237 | 3.2 | 11.3 | 0.00 | 0.03 | 0.00 | 64 | 1046.0 |
| 20260506181139 | 16 | 237 | 3.2 | 11.3 | 0.00 | 0.03 | 0.00 | 64 | 1046.0 |
| 20260506181130 | 16 | 237 | 3.2 | 8.0 | 0.00 | 0.03 | 0.00 | 64 | 1046.0 |
| 20260506180814 | 17 | 237 | 3.2 | 8.0 | 0.00 | 0.03 | 0.00 | 63 | 1045.9 |
| 20260506180752 | 17 | 237 | 3.2 | 8.0 | 0.00 | 0.03 | 0.00 | 64 | 1045.9 |
| 20260506180739 | 17 | 237 | 3.2 | 8.0 | 0.00 | 0.03 | 0.00 | 63 | 1045.9 |
| 20260506180733 | 17 | 237 | 3.2 | 9.7 | 0.00 | 0.03 | 0.00 | 63 | 1045.9 |
| 20260506180725 | 17 | 244 | 3.2 | 11.3 | 0.00 | 0.03 | 0.00 | 63 | 1045.9 |
| 20260506180718 | 17 | 244 | 3.2 | 11.3 | 0.00 | 0.03 | 0.00 | 63 | 1045.9 |
| 20260506180647 | 17 | 244 | 3.2 | 11.3 | 0.00 | 0.03 | 0.00 | 62 | 1045.9 |
| 20260506180201 | 17 | 244 | 4.8 | 11.3 | 0.00 | 0.03 | 0.00 | 62 | 1045.8 |
| 20260506180153 | 17 | 244 | 4.8 | 11.3 | 0.00 | 0.03 | 0.00 | 62 | 1045.8 |
| 20260506175706 | 17 | 244 | 4.8 | 11.3 | 0.00 | 0.03 | 0.00 | 62 | 1045.8 |
| 20260506175604 | 17 | 245 | 4.8 | 12.9 | 0.00 | 0.03 | 0.00 | 62 | 1045.8 |
| 20260506175503 | 17 | 201 | 4.8 | 12.9 | 0.00 | 0.03 | 0.00 | 62 | 1045.8 |
| 20260506175403 | 17 | 144 | 4.8 | 12.9 | 0.00 | 0.03 | 0.00 | 61 | 1045.8 |
| 20260506175306 | 17 | 144 | 4.8 | 12.9 | 0.00 | 0.03 | 0.00 | 61 | 1045.7 |
| 20260506175230 | 17 | 144 | 4.8 | 12.9 | 0.00 | 0.03 | 0.00 | 60 | 1045.8 |
| 20260506175218 | 17 | 143 | 4.8 | 12.9 | 0.00 | 0.03 | 0.00 | 60 | 1045.8 |
| 20260506175205 | 17 | 143 | 4.8 | 12.9 | 0.00 | 0.03 | 0.00 | 60 | 1045.8 |
| 20260506174941 | 17 | 141 | 6.4 | 12.9 | 0.00 | 0.03 | 0.00 | 59 | 1045.8 |
| 20260506174706 | 17 | 141 | 6.4 | 12.9 | 0.00 | 0.03 | 0.00 | 59 | 1045.8 |
| 20260506174604 | 17 | 217 | 6.4 | 11.3 | 0.00 | 0.03 | 0.00 | 59 | 1045.7 |
| 20260506174504 | 17 | 217 | 6.4 | 11.3 | 0.00 | 0.03 | 0.00 | 59 | 1045.8 |
| 20260506174404 | 17 | 217 | 6.4 | 12.9 | 0.00 | 0.03 | 0.00 | 59 | 1045.8 |
| 20260506174304 | 17 | 218 | 6.4 | 12.9 | 0.00 | 0.03 | 0.00 | 58 | 1045.8 |
| 20260506174206 | 17 | 208 | 6.4 | 12.9 | 0.00 | 0.03 | 0.00 | 58 | 1045.7 |
| 20260506174102 | 18 | 208 | 6.4 | 12.9 | 0.00 | 0.03 | 0.00 | 58 | 1045.7 |
| 20260506173959 | 18 | 208 | 6.4 | 12.9 | 0.00 | 0.03 | 0.00 | 57 | 1045.7 |
| 20260506173858 | 18 | 210 | 6.4 | 12.9 | 0.00 | 0.03 | 0.00 | 57 | 1045.7 |
| 20260506173758 | 18 | 207 | 6.4 | 12.9 | 0.00 | 0.03 | 0.00 | 57 | 1045.7 |
| 20260506173711 | 18 | 222 | 4.8 | 12.9 | 0.00 | 0.03 | 0.00 | 57 | 1045.7 |
| 20260506173657 | 18 | 222 | 4.8 | 12.9 | 0.00 | 0.03 | 0.00 | 57 | 1045.7 |
| 20260506173557 | 18 | 220 | 6.4 | 12.9 | 0.00 | 0.03 | 0.00 | 56 | 1045.6 |
| 20260506173456 | 18 | 224 | 4.8 | 12.9 | 0.00 | 0.03 | 0.00 | 56 | 1045.6 |
| 20260506173356 | 18 | 187 | 4.8 | 12.9 | 0.00 | 0.03 | 0.00 | 56 | 1045.6 |
| 20260506173256 | 18 | 218 | 4.8 | 11.3 | 0.00 | 0.03 | 0.00 | 56 | 1045.6 |
| 20260506173207 | 18 | 217 | 4.8 | 9.7 | 0.00 | 0.03 | 0.00 | 56 | 1045.6 |
| 20260506173155 | 18 | 217 | 4.8 | 9.7 | 0.00 | 0.03 | 0.00 | 57 | 1045.6 |
| 20260506173054 | 18 | 217 | 4.8 | 12.9 | 0.00 | 0.03 | 0.00 | 57 | 1045.6 |
| 20260506172953 | 18 | 218 | 4.8 | 12.9 | 0.00 | 0.03 | 0.00 | 56 | 1045.6 |
| 20260506172853 | 18 | 218 | 4.8 | 12.9 | 0.00 | 0.03 | 0.00 | 56 | 1045.6 |
| 20260506172754 | 18 | 224 | 6.4 | 12.9 | 0.00 | 0.03 | 0.00 | 55 | 1045.6 |
| 20260506172709 | 18 | 225 | 6.4 | 12.9 | 0.00 | 0.03 | 0.00 | 55 | 1045.6 |
| 20260506172654 | 18 | 225 | 6.4 | 12.9 | 0.00 | 0.03 | 0.00 | 55 | 1045.6 |
| 20260506172611 | 18 | 234 | 6.4 | 12.9 | 0.00 | 0.03 | 0.00 | 55 | 1045.6 |
| 20260506172603 | 18 | 200 | 6.4 | 12.9 | 0.00 | 0.03 | 0.00 | 55 | 1045.6 |
| 20260506172552 | 18 | 200 | 6.4 | 12.9 | 0.00 | 0.03 | 0.00 | 55 | 1045.6 |
| 20260506172534 | 18 | 200 | 6.4 | 12.9 | 0.00 | 0.03 | 0.00 | 54 | 1045.6 |
| 20260506172527 | 18 | 201 | 6.4 | 12.9 | 0.00 | 0.03 | 0.00 | 54 | 1045.6 |
| 20260506172515 | 18 | 220 | 6.4 | 12.9 | 0.00 | 0.03 | 0.00 | 54 | 1045.5 |
| 20260506172247 | 18 | 205 | 6.4 | 12.9 | 0.00 | 0.03 | 0.00 | 54 | 1045.6 |
| 20260506172238 | 18 | 206 | 4.8 | 12.9 | 0.00 | 0.03 | 0.00 | 54 | 1045.6 |
| 20260506171442 | 18 | 204 | 4.8 | 12.9 | 0.00 | 0.08 | 0.00 | 54 | 1045.5 |
| 20260506171341 | 18 | 204 | 6.4 | 12.9 | 0.00 | 0.08 | 0.00 | 54 | 1045.5 |
| 20260506171239 | 18 | 205 | 6.4 | 14.5 | 0.00 | 0.08 | 0.00 | 54 | 1045.6 |
| 20260506171203 | 18 | 239 | 6.4 | 14.5 | 0.00 | 0.08 | 0.00 | 54 | 1045.6 |
| 20260506171140 | 18 | 239 | 6.4 | 14.5 | 0.00 | 0.08 | 0.00 | 54 | 1045.5 |
| 20260506171040 | 18 | 239 | 6.4 | 14.5 | 0.00 | 0.08 | 0.00 | 54 | 1045.6 |
| 20260506170948 | 18 | 211 | 6.4 | 14.5 | 0.00 | 0.08 | 0.00 | 54 | 1045.6 |
| 20260506170940 | 18 | 212 | 6.4 | 14.5 | 0.00 | 0.08 | 0.00 | 54 | 1045.6 |
| 20260506170925 | 18 | 212 | 6.4 | 14.5 | 0.00 | 0.08 | 0.00 | 54 | 1045.5 |
| 20260506170635 | 18 | 213 | 6.4 | 14.5 | 0.00 | 0.08 | 0.00 | 54 | 1045.6 |
| 20260506170535 | 18 | 213 | 6.4 | 14.5 | 0.00 | 0.08 | 0.00 | 54 | 1045.6 |
| 20260506170436 | 18 | 183 | 6.4 | 14.5 | 0.00 | 0.08 | 0.00 | 53 | 1045.6 |
| 20260506170401 | 19 | 182 | 6.4 | 14.5 | 0.00 | 0.08 | 0.00 | 53 | 1045.5 |
| 20260506170352 | 19 | 165 | 6.4 | 12.9 | 0.00 | 0.08 | 0.00 | 53 | 1045.5 |
| 20260506170343 | 19 | 166 | 6.4 | 12.9 | 0.00 | 0.08 | 0.00 | 53 | 1045.5 |
| 20260506170331 | 19 | 166 | 6.4 | 12.9 | 0.00 | 0.08 | 0.00 | 53 | 1045.5 |
| 20260506170051 | 19 | 166 | 6.4 | 12.9 | 0.00 | 0.08 | 0.00 | 53 | 1045.5 |
| 20260506170036 | 19 | 165 | 6.4 | 12.9 | 0.00 | 0.08 | 0.00 | 52 | 1045.5 |
| 20260506170023 | 19 | 165 | 6.4 | 12.9 | 0.00 | 0.08 | 0.00 | 52 | 1045.5 |
| 20260506165754 | 19 | 165 | 4.8 | 12.9 | 0.00 | 0.08 | 0.00 | 53 | 1045.5 |
| 20260506165431 | 19 | 221 | 6.4 | 12.9 | 0.00 | 0.08 | 0.00 | 53 | 1045.4 |
| 20260506165330 | 19 | 222 | 6.4 | 12.9 | 0.00 | 0.08 | 0.00 | 52 | 1045.5 |
| 20260506165205 | 19 | 220 | 6.4 | 12.9 | 0.00 | 0.08 | 0.00 | 52 | 1045.5 |
| 20260506165128 | 19 | 220 | 6.4 | 12.9 | 0.00 | 0.08 | 0.00 | 53 | 1045.4 |
| 20260506165027 | 19 | 211 | 6.4 | 12.9 | 0.00 | 0.08 | 0.00 | 53 | 1045.4 |
| 20260506164923 | 19 | 211 | 6.4 | 12.9 | 0.00 | 0.08 | 0.00 | 53 | 1045.4 |
| 20260506164820 | 19 | 210 | 6.4 | 12.9 | 0.00 | 0.08 | 0.00 | 52 | 1045.4 |
| 20260506164720 | 19 | 208 | 6.4 | 12.9 | 0.00 | 0.08 | 0.00 | 53 | 1045.4 |
| 20260506164702 | 19 | 208 | 6.4 | 12.9 | 0.00 | 0.08 | 0.00 | 53 | 1045.4 |
| 20260506164646 | 19 | 207 | 6.4 | 12.9 | 0.00 | 0.08 | 0.00 | 53 | 1045.4 |
| 20260506164638 | 19 | 208 | 6.4 | 12.9 | 0.00 | 0.08 | 0.00 | 53 | 1045.4 |
| 20260506164313 | 19 | 211 | 6.4 | 14.5 | 0.00 | 0.08 | 0.00 | 53 | 1045.2 |
| 20260506164217 | 19 | 211 | 6.4 | 14.5 | 0.00 | 0.08 | 0.00 | 53 | 1045.4 |
| 20260506164156 | 19 | 216 | 6.4 | 14.5 | 0.00 | 0.08 | 0.00 | 53 | 1045.4 |
| 20260506164118 | 19 | 212 | 6.4 | 14.5 | 0.00 | 0.08 | 0.00 | 53 | 1045.2 |
| 20260506164017 | 19 | 211 | 6.4 | 14.5 | 0.00 | 0.08 | 0.00 | 53 | 1045.4 |
| 20260506163907 | 19 | 211 | 6.4 | 14.5 | 0.00 | 0.08 | 0.00 | 53 | 1045.4 |
| 20260506163807 | 19 | 211 | 6.4 | 14.5 | 0.00 | 0.08 | 0.00 | 52 | 1045.4 |
| 20260506163707 | 19 | 211 | 6.4 | 14.5 | 0.00 | 0.08 | 0.00 | 52 | 1045.4 |
| 20260506163649 | 19 | 211 | 6.4 | 14.5 | 0.00 | 0.08 | 0.00 | 52 | 1045.5 |
| 20260506163605 | 19 | 216 | 6.4 | 14.5 | 0.00 | 0.08 | 0.00 | 52 | 1045.5 |
| 20260506163503 | 20 | 233 | 6.4 | 14.5 | 0.00 | 0.08 | 0.00 | 52 | 1045.4 |
| 20260506163401 | 20 | 249 | 6.4 | 14.5 | 0.00 | 0.08 | 0.00 | 53 | 1045.4 |
| 20260506163308 | 20 | 218 | 6.4 | 14.5 | 0.00 | 0.10 | 0.00 | 52 | 1045.4 |
| 20260506163239 | 20 | 217 | 6.4 | 14.5 | 0.00 | 0.10 | 0.00 | 52 | 1045.4 |
| 20260506163231 | 20 | 217 | 6.4 | 14.5 | 0.00 | 0.10 | 0.00 | 53 | 1045.4 |
| 20260506162858 | 20 | 231 | 6.4 | 14.5 | 0.00 | 0.10 | 0.00 | 53 | 1045.4 |
| 20260506162833 | 20 | 231 | 6.4 | 14.5 | 0.00 | 0.10 | 0.00 | 53 | 1045.2 |
| 20260506162814 | 20 | 231 | 6.4 | 14.5 | 0.00 | 0.10 | 0.00 | 53 | 1045.2 |
| 20260506162806 | 20 | 231 | 6.4 | 14.5 | 0.00 | 0.10 | 0.00 | 53 | 1045.2 |
| 20260506162756 | 20 | 166 | 6.4 | 16.1 | 0.00 | 0.10 | 0.00 | 53 | 1045.2 |
| 20260506162745 | 20 | 160 | 6.4 | 16.1 | 0.00 | 0.10 | 0.00 | 52 | 1045.2 |
| 20260506162513 | 20 | 174 | 6.4 | 16.1 | 0.00 | 0.13 | 0.00 | 53 | 1045.2 |
| 20260506162251 | 20 | 216 | 6.4 | 19.3 | 0.00 | 0.13 | 0.00 | 53 | 1045.2 |
| 20260506162242 | 20 | 217 | 6.4 | 19.3 | 0.00 | 0.15 | 0.00 | 53 | 1045.2 |
| 20260506162234 | 20 | 158 | 8.0 | 19.3 | 0.00 | 0.15 | 0.00 | 53 | 1045.2 |
| 20260506162223 | 20 | 244 | 8.0 | 19.3 | 0.00 | 0.15 | 0.00 | 52 | 1045.1 |
| 20260506162205 | 20 | 251 | 8.0 | 19.3 | 0.00 | 0.15 | 0.00 | 52 | 1045.2 |
| 20260506161923 | 20 | 162 | 6.4 | 19.3 | 0.00 | 0.15 | 0.00 | 52 | 1045.1 |
| 20260506161653 | 20 | 194 | 6.4 | 19.3 | 0.00 | 0.18 | 0.00 | 52 | 1045.1 |
| 20260506161641 | 20 | 198 | 6.4 | 14.5 | 0.00 | 0.18 | 0.00 | 52 | 1045.1 |
| 20260506160838 | 20 | 198 | 6.4 | 14.5 | 0.00 | 0.23 | 0.00 | 52 | 1045.1 |
| 20260506160738 | 20 | 243 | 6.4 | 14.5 | 0.00 | 0.23 | 0.00 | 52 | 1045.1 |
| 20260506160643 | 20 | 192 | 6.4 | 14.5 | 0.00 | 0.23 | 0.00 | 52 | 1045.1 |
| 20260506160540 | 20 | 140 | 6.4 | 14.5 | 0.00 | 0.23 | 0.00 | 54 | 1045.1 |
| 20260506160438 | 20 | 231 | 6.4 | 14.5 | 0.00 | 0.23 | 0.00 | 54 | 1045.1 |
| 20260506160337 | 19 | 231 | 6.4 | 14.5 | 0.00 | 0.25 | 0.00 | 53 | 1045.1 |
| 20260506160237 | 19 | 233 | 6.4 | 14.5 | 0.00 | 0.25 | 0.00 | 52 | 1045.1 |
| 20260506160136 | 19 | 231 | 6.4 | 14.5 | 0.00 | 0.28 | 0.00 | 52 | 1045.1 |
| 20260506160035 | 19 | 153 | 4.8 | 14.5 | 0.00 | 0.28 | 0.00 | 52 | 1045.1 |
| 20260506155934 | 19 | 147 | 4.8 | 14.5 | 0.00 | 0.28 | 0.00 | 52 | 1045.1 |
| 20260506155916 | 19 | 143 | 4.8 | 14.5 | 0.00 | 0.30 | 0.00 | 53 | 1045.1 |
| 20260506155904 | 19 | 218 | 6.4 | 14.5 | 0.00 | 0.30 | 0.00 | 52 | 1045.1 |
| 20260506155854 | 19 | 227 | 6.4 | 14.5 | 0.00 | 0.30 | 0.00 | 52 | 1045.1 |
| 20260506155528 | 19 | 183 | 6.4 | 14.5 | 0.00 | 0.30 | 0.00 | 53 | 1045.2 |
| 20260506155429 | 19 | 238 | 6.4 | 14.5 | 0.00 | 0.30 | 0.00 | 53 | 1045.2 |
| 20260506155328 | 19 | 264 | 6.4 | 14.5 | 0.00 | 0.33 | 0.00 | 53 | 1045.1 |
| 20260506155225 | 19 | 264 | 6.4 | 14.5 | 0.00 | 0.33 | 0.00 | 52 | 1045.1 |
| 20260506155139 | 19 | 264 | 8.0 | 14.5 | 0.00 | 0.33 | 0.00 | 52 | 1045.1 |
| 20260506155125 | 19 | 264 | 8.0 | 17.7 | 0.00 | 0.33 | 0.00 | 52 | 1045.1 |
| 20260506155027 | 19 | 264 | 8.0 | 17.7 | 0.00 | 0.33 | 0.00 | 52 | 1045.1 |
| 20260506154951 | 19 | 264 | 8.0 | 17.7 | 0.00 | 0.33 | 0.00 | 52 | 1045.1 |
| 20260506154944 | 19 | 264 | 8.0 | 17.7 | 0.00 | 0.33 | 0.00 | 52 | 1045.1 |
| 20260506154638 | 20 | 246 | 6.4 | 17.7 | 0.00 | 0.33 | 0.00 | 52 | 1045.1 |
| 20260506154620 | 20 | 227 | 6.4 | 17.7 | 0.00 | 0.33 | 0.00 | 52 | 1045.1 |
| 20260506154557 | 20 | 242 | 6.4 | 17.7 | 0.00 | 0.33 | 0.00 | 51 | 1045.1 |
| 20260506154550 | 20 | 184 | 6.4 | 17.7 | 0.00 | 0.36 | 0.00 | 51 | 1045.0 |
| 20260506154538 | 20 | 187 | 6.4 | 19.3 | 0.00 | 0.36 | 0.00 | 51 | 1045.1 |
| 20260506154530 | 20 | 187 | 8.0 | 19.3 | 0.00 | 0.36 | 0.00 | 52 | 1045.2 |
| 20260506154519 | 20 | 185 | 6.4 | 19.3 | 0.00 | 0.36 | 0.00 | 52 | 1045.1 |
| 20260506154512 | 20 | 204 | 6.4 | 19.3 | 0.00 | 0.36 | 0.00 | 52 | 1045.1 |
| 20260506154245 | 20 | 192 | 8.0 | 19.3 | 0.00 | 0.38 | 0.00 | 53 | 1045.1 |
| 20260506153748 | 20 | 245 | 8.0 | 19.3 | 0.00 | 0.38 | 0.00 | 52 | 1045.1 |
| 20260506153735 | 20 | 255 | 9.7 | 19.3 | 0.00 | 0.38 | 0.00 | 52 | 1045.1 |
| 20260506153508 | 20 | 209 | 8.0 | 14.5 | 0.00 | 0.41 | 0.00 | 51 | 1045.2 |
| 20260506153241 | 20 | 174 | 8.0 | 14.5 | 0.00 | 0.43 | 0.00 | 51 | 1045.1 |
| 20260506153234 | 20 | 168 | 8.0 | 14.5 | 0.00 | 0.43 | 0.00 | 51 | 1045.1 |
| 20260506153223 | 20 | 162 | 8.0 | 14.5 | 0.00 | 0.43 | 0.00 | 52 | 1045.1 |
| 20260506153204 | 20 | 177 | 8.0 | 14.5 | 0.00 | 0.46 | 0.00 | 51 | 1045.1 |
| 20260506153142 | 20 | 179 | 8.0 | 14.5 | 0.00 | 0.48 | 0.00 | 51 | 1045.2 |
| 20260506153133 | 20 | 228 | 8.0 | 14.5 | 0.00 | 0.51 | 0.00 | 52 | 1045.2 |
| 20260506152908 | 20 | 229 | 8.0 | 14.5 | 0.00 | 0.51 | 0.00 | 53 | 1045.2 |
| 20260506152854 | 20 | 226 | 6.4 | 14.5 | 0.00 | 0.53 | 0.00 | 52 | 1045.1 |
| 20260506152841 | 20 | 188 | 6.4 | 14.5 | 0.00 | 0.58 | 0.00 | 52 | 1045.1 |
| 20260506152831 | 20 | 189 | 6.4 | 14.5 | 0.00 | 0.61 | 0.00 | 51 | 1045.2 |
| 20260506152824 | 20 | 206 | 6.4 | 12.9 | 0.00 | 0.61 | 0.00 | 53 | 1045.2 |
| 20260506152341 | 20 | 247 | 8.0 | 17.7 | 0.00 | 0.69 | 0.00 | 52 | 1045.2 |
| 20260506152327 | 20 | 247 | 8.0 | 17.7 | 0.00 | 0.71 | 0.00 | 52 | 1045.1 |
| 20260506152321 | 20 | 228 | 8.0 | 17.7 | 0.00 | 0.71 | 0.00 | 52 | 1045.2 |
| 20260506152311 | 20 | 228 | 6.4 | 17.7 | 0.00 | 0.71 | 0.00 | 53 | 1045.2 |
| 20260506152043 | 20 | 221 | 6.4 | 17.7 | 0.00 | 0.71 | 0.00 | 51 | 1045.2 |
| 20260506151336 | 20 | 222 | 4.8 | 17.7 | 0.00 | 0.74 | 0.00 | 50 | 1045.2 |
| 20260506151326 | 20 | 221 | 4.8 | 17.7 | 0.00 | 0.74 | 0.00 | 51 | 1045.4 |
| 20260506151004 | 20 | 149 | 3.2 | 11.3 | 0.00 | 0.74 | 0.00 | 51 | 1045.4 |
| 20260506150904 | 20 | 231 | 4.8 | 11.3 | 0.00 | 0.74 | 0.00 | 51 | 1045.4 |
| 20260506150803 | 20 | 233 | 4.8 | 14.5 | 0.00 | 0.74 | 0.00 | 51 | 1045.4 |
| 20260506150703 | 20 | 233 | 4.8 | 14.5 | 0.00 | 0.74 | 0.00 | 51 | 1045.4 |
| 20260506150605 | 20 | 233 | 4.8 | 14.5 | 0.00 | 0.74 | 0.00 | 52 | 1045.4 |
| 20260506150506 | 20 | 150 | 4.8 | 14.5 | 0.00 | 0.74 | 0.00 | 50 | 1045.4 |
| 20260506150434 | 20 | 149 | 4.8 | 14.5 | 0.00 | 0.74 | 0.00 | 51 | 1045.4 |
| 20260506150424 | 20 | 227 | 4.8 | 14.5 | 0.00 | 0.74 | 0.00 | 50 | 1045.4 |
| 20260506150104 | 20 | 231 | 4.8 | 14.5 | 0.00 | 0.74 | 0.00 | 49 | 1045.5 |
| 20260506150004 | 20 | 231 | 4.8 | 14.5 | 0.00 | 0.74 | 0.00 | 49 | 1045.5 |
| 20260506145903 | 20 | 233 | 4.8 | 14.5 | 0.00 | 0.74 | 0.00 | 50 | 1045.5 |
| 20260506145804 | 20 | 191 | 4.8 | 14.5 | 0.00 | 0.74 | 0.00 | 50 | 1045.5 |
| 20260506145705 | 20 | 200 | 4.8 | 11.3 | 0.00 | 0.74 | 0.00 | 50 | 1045.5 |
| 20260506145633 | 20 | 206 | 4.8 | 11.3 | 0.00 | 0.74 | 0.00 | 50 | 1045.5 |
| 20260506145603 | 20 | 206 | 4.8 | 11.3 | 0.00 | 0.74 | 0.00 | 50 | 1045.5 |
| 20260506145500 | 20 | 206 | 4.8 | 11.3 | 0.00 | 0.74 | 0.00 | 50 | 1045.5 |
| 20260506145424 | 21 | 206 | 4.8 | 11.3 | 0.00 | 0.74 | 0.00 | 49 | 1045.5 |
| 20260506145414 | 21 | 206 | 6.4 | 11.3 | 0.00 | 0.74 | 0.00 | 48 | 1045.5 |
| 20260506145358 | 21 | 207 | 6.4 | 12.9 | 0.00 | 0.74 | 0.00 | 48 | 1045.5 |
| 20260506145348 | 21 | 206 | 6.4 | 12.9 | 0.00 | 0.74 | 0.00 | 48 | 1045.5 |
| 20260506145338 | 21 | 207 | 6.4 | 12.9 | 0.00 | 0.74 | 0.00 | 48 | 1045.5 |
| 20260506144801 | 21 | 211 | 6.4 | 12.9 | 0.00 | 0.74 | 0.00 | 48 | 1045.5 |
| 20260506144701 | 21 | 212 | 4.8 | 12.9 | 0.00 | 0.74 | 0.00 | 48 | 1045.5 |
| 20260506144632 | 21 | 208 | 4.8 | 12.9 | 0.00 | 0.74 | 0.00 | 48 | 1045.5 |
| 20260506144601 | 21 | 208 | 4.8 | 12.9 | 0.00 | 0.74 | 0.00 | 48 | 1045.5 |
| 20260506144501 | 21 | 208 | 4.8 | 12.9 | 0.00 | 0.74 | 0.00 | 48 | 1045.5 |
| 20260506144402 | 21 | 208 | 4.8 | 12.9 | 0.00 | 0.74 | 0.00 | 48 | 1045.5 |
| 20260506144305 | 21 | 208 | 4.8 | 12.9 | 0.00 | 0.74 | 0.00 | 48 | 1045.6 |
| 20260506144202 | 21 | 256 | 4.8 | 12.9 | 0.00 | 0.74 | 0.00 | 48 | 1045.5 |
| 20260506144131 | 21 | 256 | 6.4 | 12.9 | 0.00 | 0.74 | 0.00 | 48 | 1045.5 |
| 20260506144101 | 21 | 258 | 6.4 | 12.9 | 0.00 | 0.74 | 0.00 | 47 | 1045.5 |
| 20260506144018 | 21 | 203 | 6.4 | 16.1 | 0.00 | 0.74 | 0.00 | 47 | 1045.5 |
| 20260506144009 | 21 | 203 | 6.4 | 16.1 | 0.00 | 0.74 | 0.00 | 46 | 1045.6 |
| 20260506143958 | 21 | 203 | 6.4 | 16.1 | 0.00 | 0.74 | 0.00 | 46 | 1045.6 |
| 20260506143947 | 21 | 202 | 8.0 | 16.1 | 0.00 | 0.74 | 0.00 | 47 | 1045.6 |
| 20260506143938 | 21 | 202 | 8.0 | 16.1 | 0.00 | 0.74 | 0.00 | 46 | 1045.6 |
| 20260506143438 | 21 | 203 | 8.0 | 16.1 | 0.00 | 0.74 | 0.00 | 46 | 1045.6 |
| 20260506143427 | 21 | 203 | 8.0 | 16.1 | 0.00 | 0.74 | 0.00 | 46 | 1045.7 |
| 20260506143131 | 21 | 196 | 8.0 | 16.1 | 0.00 | 0.74 | 0.00 | 47 | 1045.7 |
| 20260506143120 | 21 | 218 | 8.0 | 16.1 | 0.00 | 0.74 | 0.00 | 47 | 1045.7 |
| 20260506143105 | 21 | 197 | 6.4 | 12.9 | 0.00 | 0.74 | 0.00 | 46 | 1045.7 |
| 20260506143057 | 21 | 197 | 8.0 | 14.5 | 0.00 | 0.74 | 0.00 | 46 | 1045.7 |
| 20260506143050 | 21 | 201 | 6.4 | 14.5 | 0.00 | 0.74 | 0.00 | 46 | 1045.7 |
| 20260506143040 | 21 | 216 | 6.4 | 14.5 | 0.00 | 0.74 | 0.00 | 46 | 1045.6 |
| 20260506143031 | 21 | 249 | 6.4 | 14.5 | 0.00 | 0.74 | 0.00 | 45 | 1045.7 |
| 20260506143024 | 21 | 255 | 6.4 | 14.5 | 0.00 | 0.74 | 0.00 | 45 | 1045.7 |
| 20260506143010 | 21 | 258 | 6.4 | 14.5 | 0.00 | 0.74 | 0.00 | 46 | 1045.6 |
| 20260506142949 | 21 | 260 | 6.4 | 14.5 | 0.00 | 0.74 | 0.00 | 45 | 1045.6 |
| 20260506142502 | 21 | 222 | 6.4 | 14.5 | 0.00 | 0.74 | 0.00 | 47 | 1045.7 |
| 20260506142451 | 21 | 239 | 6.4 | 14.5 | 0.00 | 0.74 | 0.00 | 47 | 1045.7 |
| 20260506142218 | 21 | 252 | 4.8 | 11.3 | 0.00 | 0.74 | 0.00 | 47 | 1045.7 |
| 20260506141948 | 21 | 216 | 6.4 | 12.9 | 0.00 | 0.74 | 0.00 | 46 | 1045.7 |
| 20260506141942 | 21 | 245 | 6.4 | 12.9 | 0.00 | 0.74 | 0.00 | 46 | 1045.7 |
| 20260506141401 | 21 | 246 | 6.4 | 20.9 | 0.00 | 0.74 | 0.00 | 46 | 1045.7 |
| 20260506141303 | 21 | 244 | 6.4 | 20.9 | 0.00 | 0.74 | 0.00 | 46 | 1045.8 |
| 20260506141214 | 21 | 245 | 8.0 | 20.9 | 0.00 | 0.74 | 0.00 | 48 | 1045.8 |
| 20260506141158 | 21 | 245 | 8.0 | 20.9 | 0.00 | 0.74 | 0.00 | 48 | 1045.8 |
| 20260506141144 | 21 | 245 | 8.0 | 20.9 | 0.00 | 0.74 | 0.00 | 46 | 1045.8 |
| 20260506140921 | 21 | 243 | 8.0 | 20.9 | 0.00 | 0.74 | 0.00 | 45 | 1045.8 |
| 20260506140635 | 21 | 186 | 8.0 | 20.9 | 0.00 | 0.74 | 0.00 | 45 | 1045.8 |
| 20260506140559 | 21 | 246 | 8.0 | 19.3 | 0.00 | 0.74 | 0.00 | 45 | 1045.8 |
| 20260506140459 | 21 | 241 | 8.0 | 14.5 | 0.00 | 0.74 | 0.00 | 45 | 1045.9 |
| 20260506140356 | 21 | 255 | 8.0 | 14.5 | 0.00 | 0.74 | 0.00 | 45 | 1045.8 |
| 20260506140256 | 21 | 256 | 8.0 | 14.5 | 0.00 | 0.74 | 0.00 | 46 | 1045.8 |
| 20260506140157 | 21 | 231 | 8.0 | 14.5 | 0.00 | 0.74 | 0.00 | 46 | 1045.8 |
| 20260506140134 | 21 | 230 | 8.0 | 16.1 | 0.00 | 0.74 | 0.00 | 47 | 1045.9 |
| 20260506140056 | 21 | 229 | 8.0 | 16.1 | 0.00 | 0.74 | 0.00 | 46 | 1045.9 |
| 20260506135957 | 21 | 222 | 8.0 | 16.1 | 0.00 | 0.74 | 0.00 | 47 | 1045.9 |
| 20260506135857 | 21 | 225 | 8.0 | 16.1 | 0.00 | 0.74 | 0.00 | 46 | 1045.9 |
| 20260506135757 | 21 | 237 | 8.0 | 16.1 | 0.00 | 0.74 | 0.00 | 46 | 1045.9 |
| 20260506135653 | 21 | 233 | 8.0 | 16.1 | 0.00 | 0.74 | 0.00 | 46 | 1045.9 |
| 20260506135644 | 21 | 233 | 9.7 | 16.1 | 0.00 | 0.74 | 0.00 | 46 | 1045.9 |
| 20260506135551 | 21 | 230 | 9.7 | 16.1 | 0.00 | 0.74 | 0.00 | 46 | 1045.9 |
| 20260506135450 | 21 | 228 | 9.7 | 16.1 | 0.00 | 0.74 | 0.00 | 46 | 1045.9 |
| 20260506135350 | 21 | 208 | 9.7 | 16.1 | 0.00 | 0.74 | 0.00 | 45 | 1045.9 |
| 20260506135327 | 21 | 206 | 9.7 | 16.1 | 0.00 | 0.74 | 0.00 | 45 | 1045.9 |
| 20260506135317 | 21 | 206 | 9.7 | 16.1 | 0.00 | 0.74 | 0.00 | 46 | 1045.9 |
| 20260506135310 | 21 | 190 | 9.7 | 16.1 | 0.00 | 0.74 | 0.00 | 46 | 1045.9 |
| 20260506134945 | 21 | 190 | 9.7 | 16.1 | 0.00 | 0.74 | 0.00 | 46 | 1045.9 |
| 20260506134845 | 21 | 229 | 9.7 | 16.1 | 0.00 | 0.74 | 0.00 | 47 | 1046.0 |
| 20260506134745 | 21 | 233 | 9.7 | 16.1 | 0.00 | 0.74 | 0.00 | 46 | 1046.0 |
| 20260506134703 | 21 | 245 | 9.7 | 16.1 | 0.00 | 0.74 | 0.00 | 47 | 1046.0 |
| 20260506134653 | 21 | 246 | 9.7 | 16.1 | 0.00 | 0.74 | 0.00 | 47 | 1046.0 |
| 20260506134643 | 21 | 243 | 9.7 | 16.1 | 0.00 | 0.74 | 0.00 | 48 | 1046.0 |
| 20260506134630 | 21 | 241 | 8.0 | 16.1 | 0.00 | 0.74 | 0.00 | 48 | 1046.0 |
| 20260506134620 | 21 | 255 | 8.0 | 16.1 | 0.00 | 0.74 | 0.00 | 48 | 1046.0 |
| 20260506134349 | 21 | 229 | 8.0 | 16.1 | 0.00 | 0.74 | 0.00 | 50 | 1046.1 |
| 20260506134048 | 21 | 232 | 8.0 | 20.9 | 0.00 | 0.74 | 0.00 | 50 | 1046.0 |
| 20260506134039 | 20 | 273 | 9.7 | 20.9 | 0.00 | 0.74 | 0.00 | 49 | 1046.1 |
| 20260506134032 | 20 | 268 | 8.0 | 20.9 | 0.00 | 0.74 | 0.00 | 50 | 1046.1 |
| 20260506134020 | 20 | 242 | 8.0 | 20.9 | 0.00 | 0.74 | 0.00 | 51 | 1046.1 |
| 20260506134003 | 20 | 260 | 8.0 | 20.9 | 0.00 | 0.74 | 0.00 | 50 | 1046.1 |
| 20260506133957 | 20 | 259 | 8.0 | 20.9 | 0.00 | 0.74 | 0.00 | 50 | 1046.1 |
| 20260506133725 | 20 | 226 | 8.0 | 20.9 | 0.00 | 0.74 | 0.00 | 51 | 1046.1 |
| 20260506133717 | 20 | 222 | 6.4 | 20.9 | 0.00 | 0.74 | 0.00 | 53 | 1046.1 |
| 20260506133710 | 20 | 266 | 6.4 | 20.9 | 0.00 | 0.74 | 0.00 | 53 | 1046.1 |
| 20260506133440 | 20 | 285 | 6.4 | 20.9 | 0.00 | 0.74 | 0.00 | 52 | 1046.1 |
| 20260506133426 | 20 | 240 | 4.8 | 14.5 | 0.00 | 0.74 | 0.00 | 52 | 1046.1 |
| 20260506132710 | 20 | 235 | 6.4 | 14.5 | 0.00 | 0.74 | 0.00 | 52 | 1046.2 |
| 20260506132700 | 20 | 233 | 6.4 | 14.5 | 0.00 | 0.74 | 0.00 | 51 | 1046.1 |
| 20260506132653 | 20 | 104 | 6.4 | 14.5 | 0.00 | 0.74 | 0.00 | 50 | 1046.2 |
| 20260506132645 | 20 | 103 | 6.4 | 14.5 | 0.00 | 0.74 | 0.00 | 49 | 1046.1 |
| 20260506132634 | 20 | 103 | 6.4 | 14.5 | 0.00 | 0.74 | 0.00 | 48 | 1046.2 |
| 20260506132352 | 20 | 147 | 6.4 | 12.9 | 0.00 | 0.74 | 0.00 | 47 | 1046.1 |
| 20260506132122 | 20 | 126 | 4.8 | 12.9 | 0.00 | 0.74 | 0.00 | 48 | 1046.2 |
| 20260506131854 | 20 | 164 | 4.8 | 12.9 | 0.00 | 0.74 | 0.00 | 49 | 1046.2 |
| 20260506131615 | 20 | 164 | 4.8 | 12.9 | 0.00 | 0.74 | 0.00 | 49 | 1046.3 |
| 20260506131518 | 20 | 164 | 6.4 | 12.9 | 0.00 | 0.74 | 0.00 | 48 | 1046.3 |
| 20260506131413 | 20 | 164 | 6.4 | 16.1 | 0.00 | 0.74 | 0.00 | 50 | 1046.2 |
| 20260506131313 | 20 | 166 | 6.4 | 16.1 | 0.00 | 0.74 | 0.00 | 50 | 1046.3 |
| 20260506131259 | 20 | 166 | 6.4 | 16.1 | 0.00 | 0.74 | 0.00 | 50 | 1046.2 |
| 20260506131247 | 20 | 166 | 6.4 | 16.1 | 0.00 | 0.74 | 0.00 | 50 | 1046.3 |
| 20260506131240 | 20 | 167 | 6.4 | 16.1 | 0.00 | 0.74 | 0.00 | 49 | 1046.3 |
| 20260506131228 | 20 | 167 | 6.4 | 16.1 | 0.00 | 0.74 | 0.00 | 49 | 1046.3 |
| 20260506131003 | 20 | 160 | 6.4 | 16.1 | 0.00 | 0.74 | 0.00 | 48 | 1046.3 |
| 20260506130946 | 20 | 223 | 4.8 | 16.1 | 0.00 | 0.74 | 0.00 | 47 | 1046.3 |
| 20260506130934 | 20 | 225 | 4.8 | 16.1 | 0.00 | 0.74 | 0.00 | 47 | 1046.3 |
| 20260506130924 | 20 | 228 | 4.8 | 16.1 | 0.00 | 0.74 | 0.00 | 47 | 1046.3 |
| 20260506130658 | 20 | 258 | 3.2 | 12.9 | 0.00 | 0.74 | 0.00 | 49 | 1046.4 |
| 20260506130648 | 20 | 269 | 3.2 | 9.7 | 0.00 | 0.74 | 0.00 | 48 | 1046.4 |
| 20260506130640 | 20 | 269 | 3.2 | 9.7 | 0.00 | 0.74 | 0.00 | 47 | 1046.4 |
| 20260506130623 | 20 | 270 | 4.8 | 9.7 | 0.00 | 0.74 | 0.00 | 47 | 1046.3 |
| 20260506130616 | 20 | 270 | 4.8 | 11.3 | 0.00 | 0.74 | 0.00 | 47 | 1046.4 |
| 20260506130343 | 20 | 269 | 6.4 | 14.5 | 0.00 | 0.74 | 0.00 | 48 | 1046.3 |
| 20260506130331 | 20 | 270 | 6.4 | 14.5 | 0.00 | 0.74 | 0.00 | 48 | 1046.3 |
| 20260506125845 | 20 | 270 | 6.4 | 14.5 | 0.00 | 0.74 | 0.00 | 48 | 1046.3 |
| 20260506125339 | 20 | 270 | 8.0 | 14.5 | 0.00 | 0.74 | 0.00 | 49 | 1046.3 |
| 20260506125103 | 20 | 270 | 8.0 | 14.5 | 0.00 | 0.74 | 0.00 | 49 | 1046.4 |
| 20260506125004 | 20 | 270 | 6.4 | 14.5 | 0.00 | 0.74 | 0.00 | 49 | 1046.4 |
| 20260506124904 | 20 | 272 | 6.4 | 14.5 | 0.00 | 0.74 | 0.00 | 50 | 1046.4 |
| 20260506124803 | 20 | 275 | 6.4 | 12.9 | 0.00 | 0.74 | 0.00 | 50 | 1046.4 |
| 20260506124704 | 20 | 263 | 6.4 | 12.9 | 0.00 | 0.74 | 0.00 | 50 | 1046.4 |
| 20260506124620 | 20 | 191 | 6.4 | 11.3 | 0.00 | 0.74 | 0.00 | 51 | 1046.4 |
| 20260506124603 | 20 | 190 | 6.4 | 11.3 | 0.00 | 0.74 | 0.00 | 51 | 1046.4 |
| 20260506124504 | 20 | 189 | 6.4 | 11.3 | 0.00 | 0.74 | 0.00 | 51 | 1046.4 |
| 20260506124440 | 20 | 182 | 6.4 | 12.9 | 0.00 | 0.74 | 0.00 | 51 | 1046.4 |
| 20260506124430 | 19 | 181 | 4.8 | 12.9 | 0.00 | 0.74 | 0.00 | 50 | 1046.4 |
| 20260506124418 | 19 | 181 | 6.4 | 12.9 | 0.00 | 0.74 | 0.00 | 51 | 1046.4 |
| 20260506124405 | 19 | 181 | 4.8 | 12.9 | 0.00 | 0.74 | 0.00 | 50 | 1046.4 |
| 20260506124140 | 20 | 181 | 6.4 | 12.9 | 0.00 | 0.74 | 0.00 | 49 | 1046.3 |
| 20260506124132 | 20 | 182 | 6.4 | 12.9 | 0.00 | 0.74 | 0.00 | 49 | 1046.4 |
| 20260506124125 | 19 | 182 | 4.8 | 12.9 | 0.00 | 0.74 | 0.00 | 51 | 1046.3 |
| 20260506124111 | 19 | 183 | 4.8 | 12.9 | 0.00 | 0.74 | 0.00 | 52 | 1046.3 |
| 20260506124101 | 19 | 183 | 4.8 | 12.9 | 0.00 | 0.74 | 0.00 | 53 | 1046.4 |
| 20260506123333 | 19 | 185 | 4.8 | 12.9 | 0.00 | 0.74 | 0.00 | 55 | 1046.3 |
| 20260506123324 | 18 | 186 | 4.8 | 12.9 | 0.00 | 0.74 | 0.00 | 55 | 1046.3 |
| 20260506123314 | 18 | 174 | 4.8 | 12.9 | 0.00 | 0.74 | 0.00 | 55 | 1046.3 |
| 20260506123303 | 18 | 174 | 4.8 | 12.9 | 0.00 | 0.74 | 0.00 | 53 | 1046.3 |
| 20260506123253 | 18 | 114 | 4.8 | 12.9 | 0.00 | 0.74 | 0.00 | 52 | 1046.3 |
| 20260506122703 | 18 | 110 | 4.8 | 12.9 | 0.00 | 0.74 | 0.00 | 52 | 1046.4 |
| 20260506122650 | 18 | 112 | 4.8 | 12.9 | 0.00 | 0.74 | 0.00 | 52 | 1046.5 |
| 20260506122643 | 18 | 112 | 4.8 | 12.9 | 0.00 | 0.74 | 0.00 | 55 | 1046.5 |
| 20260506122634 | 18 | 99 | 4.8 | 12.9 | 0.00 | 0.74 | 0.00 | 54 | 1046.4 |
| 20260506122627 | 18 | 143 | 4.8 | 11.3 | 0.00 | 0.74 | 0.00 | 54 | 1046.5 |
| 20260506122616 | 18 | 143 | 4.8 | 11.3 | 0.00 | 0.74 | 0.00 | 54 | 1046.5 |
| 20260506122103 | 18 | 102 | 6.4 | 11.3 | 0.00 | 0.74 | 0.00 | 53 | 1046.5 |
| 20260506122006 | 18 | 95 | 6.4 | 11.3 | 0.00 | 0.74 | 0.00 | 53 | 1046.5 |
| 20260506121903 | 18 | 95 | 6.4 | 11.3 | 0.00 | 0.74 | 0.00 | 53 | 1046.5 |
| 20260506121803 | 18 | 157 | 6.4 | 9.7 | 0.00 | 0.74 | 0.00 | 53 | 1046.5 |
| 20260506121749 | 18 | 157 | 6.4 | 9.7 | 0.00 | 0.74 | 0.00 | 54 | 1046.5 |
| 20260506121731 | 18 | 157 | 6.4 | 9.7 | 0.00 | 0.74 | 0.00 | 55 | 1046.6 |
| 20260506121718 | 18 | 157 | 6.4 | 9.7 | 0.00 | 0.74 | 0.00 | 54 | 1046.6 |
| 20260506121710 | 18 | 157 | 4.8 | 9.7 | 0.00 | 0.76 | 0.00 | 52 | 1046.6 |
| 20260506121221 | 18 | 156 | 3.2 | 9.7 | 0.00 | 0.76 | 0.00 | 51 | 1046.6 |
| 20260506121212 | 18 | 158 | 3.2 | 9.7 | 0.00 | 0.76 | 0.00 | 51 | 1046.6 |
| 20260506121147 | 18 | 164 | 3.2 | 8.0 | 0.00 | 0.76 | 0.00 | 52 | 1046.6 |
| 20260506120920 | 18 | 164 | 1.6 | 6.4 | 0.00 | 0.76 | 0.00 | 52 | 1046.6 |
| 20260506120620 | 18 | 164 | 1.6 | 6.4 | 0.00 | 0.76 | 0.00 | 53 | 1046.6 |
| 20260506120556 | 18 | 165 | 1.6 | 8.0 | 0.00 | 0.76 | 0.00 | 53 | 1046.6 |
| 20260506120455 | 18 | 164 | 1.6 | 8.0 | 0.00 | 0.76 | 0.00 | 53 | 1046.6 |
| 20260506120403 | 18 | 165 | 1.6 | 8.0 | 0.00 | 0.76 | 0.00 | 52 | 1046.6 |
| 20260506120353 | 18 | 165 | 1.6 | 8.0 | 0.00 | 0.76 | 0.00 | 51 | 1046.6 |
| 20260506120341 | 18 | 165 | 1.6 | 8.0 | 0.00 | 0.76 | 0.00 | 52 | 1046.6 |
| 20260506120055 | 18 | 165 | 1.6 | 8.0 | 0.00 | 0.76 | 0.00 | 52 | 1046.6 |
| 20260506115955 | 18 | 165 | 1.6 | 8.0 | 0.00 | 0.76 | 0.00 | 53 | 1046.6 |
| 20260506115855 | 18 | 165 | 1.6 | 8.0 | 0.00 | 0.76 | 0.00 | 53 | 1046.6 |
| 20260506115755 | 18 | 165 | 3.2 | 8.0 | 0.00 | 0.76 | 0.00 | 53 | 1046.6 |
| 20260506115655 | 18 | 165 | 3.2 | 8.0 | 0.00 | 0.76 | 0.00 | 52 | 1046.7 |
| 20260506115636 | 18 | 166 | 3.2 | 8.0 | 0.00 | 0.76 | 0.00 | 52 | 1046.6 |
| 20260506115629 | 18 | 165 | 3.2 | 8.0 | 0.00 | 0.76 | 0.00 | 52 | 1046.6 |
| 20260506115619 | 18 | 160 | 3.2 | 8.0 | 0.00 | 0.76 | 0.00 | 55 | 1046.6 |
| 20260506115251 | 18 | 160 | 3.2 | 8.0 | 0.00 | 0.76 | 0.00 | 53 | 1046.6 |
| 20260506115122 | 18 | 160 | 3.2 | 8.0 | 0.00 | 0.76 | 0.00 | 53 | 1046.7 |
| 20260506115054 | 18 | 160 | 3.2 | 8.0 | 0.00 | 0.76 | 0.00 | 52 | 1046.7 |
| 20260506114951 | 18 | 160 | 3.2 | 8.0 | 0.00 | 0.76 | 0.00 | 53 | 1046.6 |
| 20260506114855 | 18 | 160 | 3.2 | 8.0 | 0.00 | 0.76 | 0.00 | 52 | 1046.7 |
| 20260506114751 | 18 | 160 | 3.2 | 8.0 | 0.00 | 0.76 | 0.00 | 52 | 1046.7 |
| 20260506114650 | 18 | 160 | 3.2 | 8.0 | 0.00 | 0.76 | 0.00 | 53 | 1046.7 |
| 20260506114619 | 18 | 160 | 3.2 | 8.0 | 0.00 | 0.76 | 0.00 | 53 | 1046.7 |
| 20260506114552 | 18 | 160 | 3.2 | 8.0 | 0.00 | 0.76 | 0.00 | 53 | 1046.7 |
| 20260506114451 | 18 | 159 | 3.2 | 8.0 | 0.00 | 0.76 | 0.00 | 52 | 1046.7 |
| 20260506114351 | 18 | 159 | 3.2 | 9.7 | 0.00 | 0.76 | 0.00 | 52 | 1046.7 |
| 20260506114252 | 18 | 159 | 4.8 | 9.7 | 0.00 | 0.76 | 0.00 | 53 | 1046.7 |
| 20260506114151 | 18 | 159 | 3.2 | 9.7 | 0.00 | 0.76 | 0.00 | 53 | 1046.7 |
| 20260506114119 | 18 | 159 | 3.2 | 9.7 | 0.00 | 0.76 | 0.00 | 54 | 1046.7 |
| 20260506114052 | 18 | 159 | 3.2 | 9.7 | 0.00 | 0.76 | 0.00 | 54 | 1046.7 |
| 20260506113951 | 18 | 159 | 3.2 | 9.7 | 0.00 | 0.76 | 0.00 | 55 | 1046.7 |
| 20260506113905 | 18 | 159 | 3.2 | 9.7 | 0.00 | 0.76 | 0.00 | 55 | 1046.7 |
| 20260506113856 | 18 | 158 | 3.2 | 9.7 | 0.00 | 0.76 | 0.00 | 55 | 1046.7 |
| 20260506113844 | 18 | 160 | 4.8 | 9.7 | 0.00 | 0.76 | 0.00 | 55 | 1046.7 |
| 20260506113551 | 18 | 159 | 3.2 | 9.7 | 0.00 | 0.76 | 0.00 | 54 | 1046.7 |
| 20260506113451 | 18 | 159 | 3.2 | 9.7 | 0.00 | 0.76 | 0.00 | 55 | 1046.8 |
| 20260506113351 | 18 | 158 | 3.2 | 8.0 | 0.00 | 0.76 | 0.00 | 54 | 1046.7 |
| 20260506113251 | 18 | 157 | 3.2 | 8.0 | 0.00 | 0.76 | 0.00 | 54 | 1046.7 |
| 20260506113151 | 18 | 157 | 3.2 | 9.7 | 0.00 | 0.76 | 0.00 | 53 | 1046.7 |
| 20260506113120 | 18 | 157 | 3.2 | 9.7 | 0.00 | 0.76 | 0.00 | 53 | 1046.7 |
| 20260506113051 | 18 | 156 | 3.2 | 9.7 | 0.00 | 0.76 | 0.00 | 53 | 1046.7 |
| 20260506112951 | 18 | 157 | 4.8 | 11.3 | 0.00 | 0.76 | 0.00 | 54 | 1046.7 |
| 20260506112851 | 18 | 156 | 4.8 | 11.3 | 0.00 | 0.76 | 0.00 | 55 | 1046.7 |
| 20260506112751 | 18 | 157 | 4.8 | 11.3 | 0.00 | 0.76 | 0.00 | 55 | 1046.7 |
| 20260506112643 | 18 | 156 | 4.8 | 11.3 | 0.00 | 0.76 | 0.00 | 55 | 1046.7 |
| 20260506112615 | 18 | 156 | 4.8 | 11.3 | 0.00 | 0.76 | 0.00 | 54 | 1046.7 |
| 20260506112543 | 18 | 156 | 4.8 | 11.3 | 0.00 | 0.76 | 0.00 | 54 | 1046.7 |
| 20260506112443 | 18 | 156 | 4.8 | 11.3 | 0.00 | 0.76 | 0.00 | 53 | 1046.7 |
| 20260506112409 | 18 | 156 | 4.8 | 11.3 | 0.00 | 0.76 | 0.00 | 53 | 1046.7 |
| 20260506112403 | 18 | 156 | 4.8 | 11.3 | 0.00 | 0.76 | 0.00 | 52 | 1046.8 |
| 20260506112349 | 18 | 156 | 4.8 | 11.3 | 0.00 | 0.76 | 0.00 | 54 | 1046.8 |
| 20260506112338 | 18 | 156 | 4.8 | 11.3 | 0.00 | 0.76 | 0.00 | 56 | 1046.8 |
| 20260506112329 | 18 | 156 | 4.8 | 11.3 | 0.00 | 0.79 | 0.00 | 56 | 1046.8 |
| 20260506112058 | 18 | 69 | 3.2 | 8.0 | 0.00 | 0.79 | 0.00 | 57 | 1046.8 |
| 20260506112035 | 18 | 69 | 3.2 | 8.0 | 0.00 | 0.79 | 0.00 | 58 | 1046.8 |
| 20260506111804 | 18 | 69 | 3.2 | 8.0 | 0.00 | 0.79 | 0.00 | 57 | 1046.8 |
| 20260506111443 | 17 | 70 | 3.2 | 8.0 | 0.00 | 0.79 | 0.00 | 55 | 1046.8 |
| 20260506111343 | 17 | 73 | 3.2 | 6.4 | 0.00 | 0.79 | 0.00 | 55 | 1046.8 |
| 20260506111243 | 17 | 74 | 3.2 | 8.0 | 0.00 | 0.79 | 0.00 | 58 | 1046.8 |
| 20260506111143 | 17 | 73 | 3.2 | 11.3 | 0.00 | 0.79 | 0.00 | 58 | 1046.8 |
| 20260506111115 | 17 | 74 | 3.2 | 11.3 | 0.00 | 0.79 | 0.00 | 58 | 1046.8 |
| 20260506111045 | 17 | 74 | 3.2 | 11.3 | 0.00 | 0.79 | 0.00 | 56 | 1046.9 |
| 20260506110954 | 17 | 73 | 3.2 | 11.3 | 0.00 | 0.79 | 0.00 | 56 | 1046.9 |
| 20260506110948 | 17 | 74 | 3.2 | 11.3 | 0.00 | 0.79 | 0.00 | 56 | 1046.8 |
| 20260506110935 | 17 | 74 | 4.8 | 11.3 | 0.00 | 0.79 | 0.00 | 56 | 1046.8 |
| 20260506110926 | 17 | 74 | 4.8 | 11.3 | 0.00 | 0.79 | 0.00 | 55 | 1046.8 |
| 20260506110659 | 18 | 74 | 4.8 | 11.3 | 0.00 | 0.79 | 0.00 | 56 | 1046.8 |
| 20260506110647 | 18 | 73 | 6.4 | 11.3 | 0.00 | 0.79 | 0.00 | 56 | 1046.8 |
| 20260506110421 | 18 | 73 | 4.8 | 11.3 | 0.00 | 0.79 | 0.00 | 55 | 1046.8 |
| 20260506110407 | 18 | 76 | 4.8 | 11.3 | 0.00 | 0.79 | 0.00 | 55 | 1046.8 |
| 20260506110358 | 18 | 76 | 4.8 | 11.3 | 0.00 | 0.79 | 0.00 | 54 | 1046.8 |
| 20260506110106 | 18 | 77 | 4.8 | 11.3 | 0.00 | 0.79 | 0.00 | 54 | 1046.9 |
| 20260506105742 | 18 | 84 | 3.2 | 9.7 | 0.00 | 0.79 | 0.00 | 56 | 1046.8 |
| 20260506105616 | 18 | 83 | 3.2 | 8.0 | 0.00 | 0.79 | 0.00 | 55 | 1046.8 |
| 20260506105601 | 18 | 211 | 3.2 | 8.0 | 0.00 | 0.79 | 0.00 | 55 | 1046.8 |
| 20260506105552 | 18 | 210 | 3.2 | 8.0 | 0.00 | 0.79 | 0.00 | 54 | 1046.8 |
| 20260506105540 | 18 | 210 | 3.2 | 8.0 | 0.00 | 0.79 | 0.00 | 55 | 1046.8 |
| 20260506105309 | 18 | 210 | 3.2 | 8.0 | 0.00 | 0.79 | 0.00 | 56 | 1046.8 |
| 20260506105300 | 18 | 210 | 3.2 | 8.0 | 0.00 | 0.79 | 0.00 | 57 | 1046.8 |
| 20260506104939 | 18 | 210 | 3.2 | 8.0 | 0.00 | 0.79 | 0.00 | 56 | 1046.8 |
| 20260506104839 | 18 | 210 | 4.8 | 8.0 | 0.00 | 0.79 | 0.00 | 57 | 1046.9 |
| 20260506104739 | 18 | 210 | 4.8 | 9.7 | 0.00 | 0.79 | 0.00 | 58 | 1046.9 |
| 20260506104627 | 18 | 210 | 4.8 | 9.7 | 0.00 | 0.79 | 0.00 | 58 | 1046.9 |
| 20260506104619 | 18 | 210 | 4.8 | 9.7 | 0.00 | 0.79 | 0.00 | 58 | 1046.9 |
| 20260506104611 | 18 | 210 | 3.2 | 9.7 | 0.00 | 0.79 | 0.00 | 58 | 1046.8 |
| 20260506104601 | 18 | 209 | 3.2 | 9.7 | 0.00 | 0.79 | 0.00 | 58 | 1046.8 |
| 20260506104555 | 18 | 209 | 3.2 | 9.7 | 0.00 | 0.79 | 0.00 | 57 | 1046.8 |
| 20260506104039 | 18 | 208 | 4.8 | 9.7 | 0.00 | 0.79 | 0.00 | 57 | 1046.8 |
| 20260506103939 | 18 | 208 | 4.8 | 9.7 | 0.00 | 0.79 | 0.00 | 58 | 1046.8 |
| 20260506103839 | 18 | 208 | 4.8 | 11.3 | 0.00 | 0.79 | 0.00 | 58 | 1046.9 |
| 20260506103737 | 18 | 206 | 4.8 | 11.3 | 0.00 | 0.79 | 0.00 | 56 | 1046.9 |
| 20260506103636 | 18 | 205 | 6.4 | 11.3 | 0.00 | 0.79 | 0.00 | 58 | 1046.9 |
| 20260506103611 | 18 | 205 | 6.4 | 14.5 | 0.00 | 0.79 | 0.00 | 58 | 1046.9 |
| 20260506103537 | 18 | 205 | 4.8 | 14.5 | 0.00 | 0.79 | 0.00 | 59 | 1046.9 |
| 20260506103436 | 18 | 204 | 6.4 | 14.5 | 0.00 | 0.79 | 0.00 | 58 | 1046.9 |
| 20260506103337 | 18 | 204 | 6.4 | 14.5 | 0.00 | 0.79 | 0.00 | 58 | 1046.9 |
| 20260506103237 | 18 | 204 | 6.4 | 16.1 | 0.00 | 0.79 | 0.00 | 56 | 1046.9 |
| 20260506103155 | 18 | 200 | 6.4 | 16.1 | 0.00 | 0.79 | 0.00 | 56 | 1047.0 |
| 20260506103144 | 18 | 199 | 6.4 | 16.1 | 0.00 | 0.79 | 0.00 | 56 | 1047.0 |
| 20260506103137 | 18 | 200 | 6.4 | 16.1 | 0.00 | 0.79 | 0.00 | 57 | 1047.0 |
| 20260506103124 | 18 | 199 | 6.4 | 16.1 | 0.00 | 0.79 | 0.00 | 57 | 1046.9 |
| 20260506103115 | 18 | 160 | 6.4 | 16.1 | 0.00 | 0.79 | 0.00 | 56 | 1046.9 |
| 20260506102609 | 18 | 163 | 4.8 | 16.1 | 0.00 | 0.79 | 0.00 | 57 | 1047.0 |
| 20260506102532 | 18 | 221 | 6.4 | 16.1 | 0.00 | 0.79 | 0.00 | 56 | 1047.0 |
| 20260506102455 | 18 | 221 | 6.4 | 16.1 | 0.00 | 0.79 | 0.00 | 55 | 1047.0 |
| 20260506102447 | 18 | 101 | 4.8 | 16.1 | 0.00 | 0.79 | 0.00 | 57 | 1047.0 |
| 20260506102436 | 18 | 240 | 4.8 | 16.1 | 0.00 | 0.79 | 0.00 | 56 | 1047.0 |
| 20260506102200 | 18 | 125 | 4.8 | 16.1 | 0.00 | 0.79 | 0.00 | 56 | 1047.0 |
| 20260506102153 | 18 | 125 | 4.8 | 16.1 | 0.00 | 0.79 | 0.00 | 56 | 1047.0 |
| 20260506102142 | 18 | 127 | 4.8 | 16.1 | 0.00 | 0.79 | 0.00 | 55 | 1047.0 |
| 20260506102135 | 18 | 127 | 4.8 | 16.1 | 0.00 | 0.79 | 0.00 | 56 | 1047.0 |
| 20260506101851 | 18 | 126 | 3.2 | 16.1 | 0.00 | 0.79 | 0.00 | 52 | 1047.0 |
| 20260506101842 | 18 | 127 | 3.2 | 16.1 | 0.00 | 0.79 | 0.00 | 52 | 1047.0 |
| 20260506101612 | 18 | 88 | 3.2 | 11.3 | 0.00 | 0.79 | 0.00 | 50 | 1047.0 |
| 20260506101346 | 18 | 316 | 3.2 | 14.5 | 0.00 | 0.79 | 0.00 | 52 | 1047.0 |
| 20260506101109 | 18 | 316 | 3.2 | 14.5 | 0.00 | 0.79 | 0.00 | 53 | 1047.0 |
| 20260506101014 | 18 | 316 | 3.2 | 14.5 | 0.00 | 0.79 | 0.00 | 54 | 1047.0 |
| 20260506100910 | 18 | 316 | 3.2 | 14.5 | 0.00 | 0.79 | 0.00 | 52 | 1047.0 |
| 20260506100808 | 18 | 316 | 4.8 | 14.5 | 0.00 | 0.79 | 0.00 | 53 | 1047.0 |
| 20260506100704 | 18 | 316 | 3.2 | 14.5 | 0.00 | 0.79 | 0.00 | 54 | 1047.0 |
| 20260506100604 | 18 | 315 | 4.8 | 14.5 | 0.00 | 0.79 | 0.00 | 52 | 1047.1 |
| 20260506100503 | 18 | 314 | 4.8 | 14.5 | 0.00 | 0.79 | 0.00 | 51 | 1047.1 |
| 20260506100404 | 18 | 312 | 4.8 | 14.5 | 0.00 | 0.79 | 0.00 | 52 | 1047.1 |
| 20260506100338 | 18 | 312 | 6.4 | 14.5 | 0.00 | 0.79 | 0.00 | 51 | 1047.1 |
| 20260506100331 | 18 | 291 | 6.4 | 12.9 | 0.00 | 0.79 | 0.00 | 51 | 1047.1 |
| 20260506100318 | 18 | 290 | 6.4 | 12.9 | 0.00 | 0.79 | 0.00 | 50 | 1047.1 |
| 20260506100001 | 18 | 291 | 6.4 | 12.9 | 0.00 | 0.79 | 0.00 | 53 | 1047.1 |
| 20260506095910 | 18 | 290 | 6.4 | 12.9 | 0.00 | 0.79 | 0.00 | 54 | 1047.1 |
| 20260506095903 | 18 | 291 | 6.4 | 12.9 | 0.00 | 0.79 | 0.00 | 53 | 1047.1 |
| 20260506095848 | 18 | 291 | 6.4 | 12.9 | 0.00 | 0.79 | 0.00 | 53 | 1047.2 |
| 20260506095620 | 18 | 293 | 6.4 | 12.9 | 0.00 | 0.79 | 0.00 | 54 | 1047.1 |
| 20260506095611 | 18 | 297 | 6.4 | 12.9 | 0.00 | 0.79 | 0.00 | 54 | 1047.2 |
| 20260506095247 | 18 | 359 | 4.8 | 14.5 | 0.00 | 0.79 | 0.00 | 53 | 1047.2 |
| 20260506095143 | 18 | 359 | 4.8 | 14.5 | 0.00 | 0.79 | 0.00 | 51 | 1047.2 |
| 20260506095103 | 18 | 4 | 4.8 | 14.5 | 0.00 | 0.79 | 0.00 | 53 | 1047.2 |
| 20260506095041 | 18 | 4 | 4.8 | 14.5 | 0.00 | 0.79 | 0.00 | 54 | 1047.2 |
| 20260506094941 | 18 | 233 | 4.8 | 14.5 | 0.00 | 0.79 | 0.00 | 53 | 1047.2 |
| 20260506094841 | 18 | 77 | 6.4 | 14.5 | 0.00 | 0.79 | 0.00 | 51 | 1047.2 |
| 20260506094740 | 18 | 79 | 6.4 | 14.5 | 0.00 | 0.79 | 0.00 | 52 | 1047.2 |
| 20260506094705 | 18 | 282 | 6.4 | 14.5 | 0.00 | 0.79 | 0.00 | 51 | 1047.2 |
| 20260506094654 | 18 | 262 | 6.4 | 14.5 | 0.00 | 0.79 | 0.00 | 52 | 1047.2 |
| 20260506094647 | 18 | 343 | 6.4 | 14.5 | 0.00 | 0.79 | 0.00 | 52 | 1047.2 |
| 20260506094634 | 18 | 312 | 6.4 | 14.5 | 0.00 | 0.79 | 0.00 | 53 | 1047.2 |
| 20260506094626 | 18 | 345 | 6.4 | 14.5 | 0.00 | 0.79 | 0.00 | 52 | 1047.2 |
| 20260506094127 | 18 | 346 | 6.4 | 16.1 | 0.00 | 0.79 | 0.00 | 52 | 1047.3 |
| 20260506094120 | 18 | 343 | 8.0 | 16.1 | 0.00 | 0.79 | 0.00 | 52 | 1047.3 |
| 20260506094111 | 18 | 338 | 8.0 | 17.7 | 0.00 | 0.79 | 0.00 | 53 | 1047.3 |
| 20260506094052 | 18 | 345 | 8.0 | 17.7 | 0.00 | 0.79 | 0.00 | 52 | 1047.2 |
| 20260506093824 | 18 | 359 | 8.0 | 19.3 | 0.00 | 0.79 | 0.00 | 52 | 1047.2 |
| 20260506093532 | 18 | 354 | 8.0 | 19.3 | 0.00 | 0.79 | 0.00 | 52 | 1047.2 |
| 20260506093506 | 18 | 278 | 8.0 | 19.3 | 0.00 | 0.79 | 0.00 | 51 | 1047.2 |
| 20260506093456 | 18 | 293 | 8.0 | 19.3 | 0.00 | 0.79 | 0.00 | 52 | 1047.2 |
| 20260506093205 | 18 | 342 | 8.0 | 19.3 | 0.00 | 0.79 | 0.00 | 51 | 1047.2 |
| 20260506093156 | 18 | 359 | 8.0 | 19.3 | 0.00 | 0.79 | 0.00 | 51 | 1047.2 |
| 20260506092830 | 18 | 350 | 6.4 | 19.3 | 0.00 | 0.79 | 0.00 | 51 | 1047.2 |
| 20260506092731 | 18 | 359 | 8.0 | 17.7 | 0.00 | 0.79 | 0.00 | 50 | 1047.2 |
| 20260506092632 | 18 | 330 | 6.4 | 17.7 | 0.00 | 0.79 | 0.00 | 52 | 1047.2 |
| 20260506092605 | 18 | 332 | 6.4 | 17.7 | 0.00 | 0.79 | 0.00 | 52 | 1047.2 |
| 20260506092529 | 18 | 347 | 6.4 | 16.1 | 0.00 | 0.79 | 0.00 | 52 | 1047.2 |
| 20260506092431 | 18 | 354 | 6.4 | 16.1 | 0.00 | 0.79 | 0.00 | 54 | 1047.2 |
| 20260506092329 | 18 | 312 | 6.4 | 16.1 | 0.00 | 0.79 | 0.00 | 54 | 1047.2 |
| 20260506092229 | 18 | 312 | 6.4 | 16.1 | 0.00 | 0.79 | 0.00 | 53 | 1047.2 |
| 20260506092104 | 18 | 329 | 6.4 | 16.1 | 0.00 | 0.79 | 0.00 | 52 | 1047.2 |
| 20260506092029 | 18 | 328 | 8.0 | 19.3 | 0.00 | 0.79 | 0.00 | 53 | 1047.2 |
| 20260506091929 | 18 | 333 | 8.0 | 19.3 | 0.00 | 0.79 | 0.00 | 52 | 1047.3 |
| 20260506091857 | 18 | 308 | 8.0 | 19.3 | 0.00 | 0.79 | 0.00 | 52 | 1047.3 |
| 20260506091851 | 18 | 283 | 8.0 | 19.3 | 0.00 | 0.79 | 0.00 | 52 | 1047.3 |
| 20260506091838 | 18 | 272 | 8.0 | 19.3 | 0.00 | 0.79 | 0.00 | 53 | 1047.3 |
| 20260506091810 | 18 | 274 | 8.0 | 19.3 | 0.00 | 0.79 | 0.00 | 53 | 1047.3 |
| 20260506091547 | 18 | 274 | 8.0 | 19.3 | 0.00 | 0.79 | 0.00 | 53 | 1047.4 |
| 20260506091227 | 17 | 274 | 8.0 | 19.3 | 0.00 | 0.79 | 0.00 | 54 | 1047.4 |
| 20260506091122 | 17 | 274 | 8.0 | 19.3 | 0.00 | 0.79 | 0.00 | 55 | 1047.4 |
| 20260506091104 | 17 | 272 | 8.0 | 19.3 | 0.00 | 0.79 | 0.00 | 55 | 1047.4 |
| 20260506091025 | 17 | 239 | 6.4 | 17.7 | 0.00 | 0.79 | 0.00 | 55 | 1047.3 |
| 20260506090923 | 17 | 276 | 6.4 | 17.7 | 0.00 | 0.79 | 0.00 | 56 | 1047.3 |
| 20260506090822 | 17 | 264 | 6.4 | 17.7 | 0.00 | 0.79 | 0.00 | 56 | 1047.3 |
| 20260506090718 | 17 | 247 | 4.8 | 12.9 | 0.00 | 0.79 | 0.00 | 56 | 1047.3 |
| 20260506090619 | 17 | 328 | 4.8 | 12.9 | 0.00 | 0.79 | 0.00 | 57 | 1047.3 |
| 20260506090603 | 17 | 331 | 4.8 | 12.9 | 0.00 | 0.79 | 0.00 | 57 | 1047.3 |
| 20260506090518 | 17 | 333 | 4.8 | 12.9 | 0.00 | 0.79 | 0.00 | 57 | 1047.3 |
| 20260506090447 | 17 | 253 | 4.8 | 12.9 | 0.00 | 0.79 | 0.00 | 57 | 1047.3 |
| 20260506090440 | 17 | 251 | 6.4 | 12.9 | 0.00 | 0.79 | 0.00 | 57 | 1047.2 |
| 20260506090104 | 17 | 4 | 4.8 | 17.7 | 0.00 | 0.79 | 0.00 | 56 | 1047.2 |
| 20260506090024 | 17 | 8 | 6.4 | 17.7 | 0.00 | 0.79 | 0.00 | 57 | 1047.3 |
| 20260506085913 | 17 | 9 | 6.4 | 17.7 | 0.00 | 0.79 | 0.00 | 57 | 1047.3 |
| 20260506085817 | 17 | 10 | 6.4 | 17.7 | 0.00 | 0.79 | 0.00 | 58 | 1047.3 |
| 20260506085712 | 17 | 320 | 6.4 | 17.7 | 0.00 | 0.79 | 0.00 | 57 | 1047.3 |
| 20260506085603 | 17 | 320 | 6.4 | 17.7 | 0.00 | 0.79 | 0.00 | 56 | 1047.3 |
| 20260506085515 | 17 | 319 | 6.4 | 17.7 | 0.00 | 0.79 | 0.00 | 55 | 1047.3 |
| 20260506085410 | 17 | 319 | 8.0 | 19.3 | 0.00 | 0.79 | 0.00 | 56 | 1047.3 |
| 20260506085309 | 17 | 324 | 6.4 | 19.3 | 0.00 | 0.79 | 0.00 | 56 | 1047.2 |
| 20260506085223 | 17 | 350 | 6.4 | 19.3 | 0.00 | 0.79 | 0.00 | 57 | 1047.3 |
| 20260506085204 | 17 | 359 | 6.4 | 19.3 | 0.00 | 0.79 | 0.00 | 57 | 1047.2 |
| 20260506085155 | 17 | 359 | 6.4 | 19.3 | 0.00 | 0.79 | 0.00 | 57 | 1047.2 |
| 20260506085146 | 17 | 4 | 6.4 | 19.3 | 0.00 | 0.79 | 0.00 | 58 | 1047.3 |
| 20260506085137 | 17 | 341 | 6.4 | 19.3 | 0.00 | 0.79 | 0.00 | 58 | 1047.3 |
| 20260506084858 | 17 | 336 | 6.4 | 19.3 | 0.00 | 0.79 | 0.00 | 58 | 1047.3 |
| 20260506084631 | 17 | 335 | 6.4 | 19.3 | 0.00 | 0.79 | 0.00 | 58 | 1047.3 |
| 20260506084615 | 17 | 359 | 6.4 | 16.1 | 0.00 | 0.79 | 0.00 | 58 | 1047.2 |
| 20260506084337 | 16 | 4 | 6.4 | 16.1 | 0.00 | 0.79 | 0.00 | 56 | 1047.2 |
| 20260506084108 | 16 | 8 | 6.4 | 16.1 | 0.00 | 0.79 | 0.00 | 57 | 1047.2 |
| 20260506084008 | 16 | 15 | 6.4 | 16.1 | 0.00 | 0.79 | 0.00 | 57 | 1047.2 |
| 20260506083903 | 16 | 293 | 6.4 | 17.7 | 0.00 | 0.79 | 0.00 | 58 | 1047.2 |
| 20260506083844 | 16 | 299 | 8.0 | 17.7 | 0.00 | 0.79 | 0.00 | 57 | 1047.2 |
| 20260506083837 | 16 | 308 | 8.0 | 19.3 | 0.00 | 0.79 | 0.00 | 58 | 1047.2 |
| 20260506083824 | 16 | 310 | 8.0 | 19.3 | 0.00 | 0.79 | 0.00 | 59 | 1047.2 |
| 20260506083501 | 16 | 302 | 8.0 | 19.3 | 0.00 | 0.79 | 0.00 | 59 | 1047.2 |
| 20260506083401 | 16 | 310 | 8.0 | 19.3 | 0.00 | 0.79 | 0.00 | 58 | 1047.1 |
| 20260506083301 | 16 | 310 | 8.0 | 19.3 | 0.00 | 0.79 | 0.00 | 58 | 1047.1 |
| 20260506083200 | 16 | 303 | 8.0 | 19.3 | 0.00 | 0.79 | 0.00 | 57 | 1047.1 |
| 20260506083112 | 16 | 304 | 8.0 | 19.3 | 0.00 | 0.79 | 0.00 | 56 | 1047.1 |
| 20260506083101 | 16 | 304 | 8.0 | 19.3 | 0.00 | 0.79 | 0.00 | 56 | 1047.1 |
| 20260506083034 | 16 | 301 | 8.0 | 19.3 | 0.00 | 0.79 | 0.00 | 58 | 1047.2 |
| 20260506083022 | 16 | 290 | 8.0 | 19.3 | 0.00 | 0.79 | 0.00 | 57 | 1047.2 |
| 20260506082659 | 17 | 308 | 6.4 | 19.3 | 0.00 | 0.79 | 0.00 | 58 | 1047.2 |
| 20260506082614 | 17 | 324 | 6.4 | 19.3 | 0.00 | 0.79 | 0.00 | 58 | 1047.2 |
| 20260506082600 | 17 | 324 | 6.4 | 19.3 | 0.00 | 0.79 | 0.00 | 58 | 1047.2 |
| 20260506082523 | 17 | 318 | 6.4 | 16.1 | 0.00 | 0.79 | 0.00 | 59 | 1047.2 |
| 20260506082515 | 17 | 303 | 6.4 | 16.1 | 0.00 | 0.79 | 0.00 | 59 | 1047.2 |
| 20260506082152 | 17 | 335 | 6.4 | 16.1 | 0.00 | 0.79 | 0.00 | 59 | 1047.2 |
| 20260506082104 | 17 | 334 | 6.4 | 16.1 | 0.00 | 0.79 | 0.00 | 59 | 1047.2 |
| 20260506082053 | 17 | 335 | 6.4 | 16.1 | 0.00 | 0.79 | 0.00 | 59 | 1047.2 |
| 20260506081954 | 17 | 268 | 6.4 | 16.1 | 0.00 | 0.79 | 0.00 | 61 | 1047.2 |
| 20260506081852 | 17 | 267 | 6.4 | 16.1 | 0.00 | 0.79 | 0.00 | 61 | 1047.2 |
| 20260506081747 | 16 | 272 | 4.8 | 16.1 | 0.00 | 0.79 | 0.00 | 61 | 1047.2 |
| 20260506081646 | 16 | 303 | 4.8 | 16.1 | 0.00 | 0.79 | 0.00 | 61 | 1047.2 |
| 20260506081607 | 16 | 274 | 4.8 | 16.1 | 0.00 | 0.79 | 0.00 | 61 | 1047.1 |
| 20260506081547 | 16 | 274 | 4.8 | 16.1 | 0.00 | 0.79 | 0.00 | 61 | 1047.1 |
| 20260506081509 | 16 | 274 | 4.8 | 16.1 | 0.00 | 0.79 | 0.00 | 62 | 1047.1 |
| 20260506081458 | 16 | 278 | 3.2 | 11.3 | 0.00 | 0.79 | 0.00 | 62 | 1047.1 |
| 20260506081452 | 16 | 250 | 3.2 | 11.3 | 0.00 | 0.79 | 0.00 | 63 | 1047.2 |
| 20260506081429 | 16 | 243 | 3.2 | 11.3 | 0.00 | 0.79 | 0.00 | 63 | 1047.1 |
| 20260506081422 | 16 | 243 | 3.2 | 11.3 | 0.00 | 0.79 | 0.00 | 63 | 1047.1 |
| 20260506081415 | 16 | 243 | 3.2 | 11.3 | 0.00 | 0.79 | 0.00 | 64 | 1047.1 |
| 20260506081351 | 16 | 243 | 3.2 | 11.3 | 0.00 | 0.79 | 0.00 | 65 | 1047.1 |
| 20260506080852 | 16 | 241 | 3.2 | 11.3 | 0.00 | 0.79 | 0.00 | 64 | 1047.0 |
| 20260506080845 | 16 | 236 | 3.2 | 11.3 | 0.00 | 0.79 | 0.00 | 64 | 1047.0 |
| 20260506080837 | 16 | 354 | 3.2 | 8.0 | 0.00 | 0.79 | 0.00 | 65 | 1047.0 |
| 20260506080829 | 16 | 12 | 3.2 | 8.0 | 0.00 | 0.79 | 0.00 | 65 | 1047.0 |
| 20260506080559 | 16 | 12 | 3.2 | 8.0 | 0.00 | 0.79 | 0.00 | 65 | 1047.0 |
| 20260506080545 | 16 | 12 | 3.2 | 8.0 | 0.00 | 0.79 | 0.00 | 64 | 1047.0 |
| 20260506080538 | 16 | 12 | 3.2 | 12.9 | 0.00 | 0.79 | 0.00 | 64 | 1046.9 |
| 20260506080316 | 15 | 10 | 3.2 | 12.9 | 0.00 | 0.79 | 0.00 | 66 | 1047.0 |
| 20260506073515 | 15 | 150 | 3.2 | 9.7 | 0.00 | 0.79 | 0.00 | 68 | 1046.8 |
| 20260506073415 | 14 | 246 | 3.2 | 8.0 | 0.00 | 0.79 | 0.00 | 68 | 1046.7 |
| 20260506073316 | 14 | 236 | 3.2 | 8.0 | 0.00 | 0.79 | 0.00 | 68 | 1046.7 |
| 20260506073215 | 14 | 240 | 3.2 | 12.9 | 0.00 | 0.79 | 0.00 | 70 | 1046.7 |
| 20260506073104 | 14 | 247 | 3.2 | 12.9 | 0.00 | 0.79 | 0.00 | 70 | 1046.7 |
| 20260506073018 | 14 | 172 | 4.8 | 12.9 | 0.00 | 0.79 | 0.00 | 70 | 1046.7 |
| 20260506072915 | 14 | 171 | 4.8 | 12.9 | 0.00 | 0.79 | 0.00 | 69 | 1046.7 |
| 20260506072816 | 14 | 172 | 4.8 | 12.9 | 0.00 | 0.79 | 0.00 | 68 | 1046.7 |
| 20260506072715 | 14 | 172 | 4.8 | 12.9 | 0.00 | 0.79 | 0.00 | 69 | 1046.7 |
| 20260506072615 | 14 | 172 | 6.4 | 12.9 | 0.00 | 0.79 | 0.00 | 70 | 1046.7 |
| 20260506072600 | 14 | 172 | 6.4 | 12.9 | 0.00 | 0.79 | 0.00 | 70 | 1046.7 |
| 20260506072521 | 14 | 172 | 6.4 | 12.9 | 0.00 | 0.79 | 0.00 | 70 | 1046.7 |
| 20260506072510 | 14 | 172 | 6.4 | 12.9 | 0.00 | 0.79 | 0.00 | 70 | 1046.7 |
| 20260506072503 | 14 | 170 | 6.4 | 12.9 | 0.00 | 0.79 | 0.00 | 69 | 1046.7 |
| 20260506072449 | 14 | 156 | 6.4 | 14.5 | 0.00 | 0.79 | 0.00 | 69 | 1046.7 |
| 20260506072441 | 14 | 156 | 6.4 | 14.5 | 0.00 | 0.79 | 0.00 | 70 | 1046.7 |
| 20260506072200 | 14 | 156 | 4.8 | 14.5 | 0.00 | 0.79 | 0.00 | 72 | 1046.7 |
| 20260506071934 | 14 | 157 | 4.8 | 14.5 | 0.00 | 0.79 | 0.00 | 72 | 1046.7 |
| 20260506071613 | 14 | 144 | 4.8 | 14.5 | 0.00 | 0.79 | 0.00 | 70 | 1046.7 |
| 20260506071542 | 14 | 133 | 4.8 | 14.5 | 0.00 | 0.79 | 0.00 | 69 | 1046.7 |
| 20260506071510 | 14 | 134 | 4.8 | 14.5 | 0.00 | 0.79 | 0.00 | 70 | 1046.7 |
| 20260506071410 | 14 | 133 | 3.2 | 14.5 | 0.00 | 0.79 | 0.00 | 69 | 1046.6 |
| 20260506071311 | 14 | 134 | 3.2 | 14.5 | 0.00 | 0.79 | 0.00 | 69 | 1046.7 |
| 20260506071209 | 14 | 140 | 3.2 | 12.9 | 0.00 | 0.79 | 0.00 | 69 | 1046.7 |
| 20260506071115 | 14 | 181 | 3.2 | 11.3 | 0.00 | 0.79 | 0.00 | 69 | 1046.7 |
| 20260506071101 | 14 | 182 | 3.2 | 11.3 | 0.00 | 0.79 | 0.00 | 69 | 1046.8 |
| 20260506071051 | 14 | 182 | 3.2 | 11.3 | 0.00 | 0.79 | 0.00 | 70 | 1046.8 |
| 20260506071043 | 14 | 182 | 3.2 | 11.3 | 0.00 | 0.79 | 0.00 | 71 | 1046.7 |
| 20260506071021 | 14 | 286 | 3.2 | 11.3 | 0.00 | 0.79 | 0.00 | 71 | 1046.7 |
| 20260506071012 | 13 | 285 | 3.2 | 11.3 | 0.00 | 0.79 | 0.00 | 71 | 1046.7 |
| 20260506070505 | 13 | 286 | 3.2 | 11.3 | 0.00 | 0.79 | 0.00 | 71 | 1046.7 |
| 20260506070404 | 13 | 285 | 3.2 | 11.3 | 0.00 | 0.79 | 0.00 | 74 | 1046.7 |
| 20260506070304 | 13 | 51 | 3.2 | 6.4 | 0.00 | 0.79 | 0.00 | 73 | 1046.7 |
| 20260506070203 | 13 | 51 | 3.2 | 6.4 | 0.00 | 0.79 | 0.00 | 73 | 1046.7 |
| 20260506070106 | 13 | 51 | 3.2 | 6.4 | 0.00 | 0.79 | 0.00 | 73 | 1046.7 |
| 20260506062301 | 12 | 34 | 3.2 | 6.4 | 0.00 | 0.79 | 0.00 | 78 | 1046.9 |
| 20260506062027 | 12 | 35 | 3.2 | 6.4 | 0.00 | 0.79 | 0.00 | 78 | 1046.9 |
| 20260506061939 | 12 | 35 | 3.2 | 9.7 | 0.00 | 0.79 | 0.00 | 78 | 1046.9 |
| 20260506061839 | 11 | 35 | 3.2 | 9.7 | 0.00 | 0.79 | 0.00 | 78 | 1046.9 |
| 20260506061738 | 11 | 35 | 3.2 | 9.7 | 0.00 | 0.79 | 0.00 | 78 | 1046.9 |
| 20260506061632 | 11 | 35 | 3.2 | 11.3 | 0.00 | 0.79 | 0.00 | 78 | 1046.9 |
| 20260506061525 | 11 | 35 | 3.2 | 11.3 | 0.00 | 0.79 | 0.00 | 79 | 1046.9 |
| 20260506061503 | 11 | 35 | 3.2 | 11.3 | 0.00 | 0.79 | 0.00 | 79 | 1046.9 |
| 20260506061453 | 11 | 36 | 3.2 | 11.3 | 0.00 | 0.79 | 0.00 | 79 | 1046.9 |
| 20260506061128 | 11 | 36 | 3.2 | 11.3 | 0.00 | 0.79 | 0.00 | 80 | 1046.9 |
| 20260506061026 | 11 | 262 | 3.2 | 11.3 | 0.00 | 0.79 | 0.00 | 80 | 1046.9 |
| 20260506061016 | 11 | 205 | 3.2 | 11.3 | 0.00 | 0.79 | 0.00 | 80 | 1046.9 |
| 20260506061008 | 11 | 204 | 3.2 | 11.3 | 0.00 | 0.79 | 0.00 | 81 | 1046.8 |
| 20260506060618 | 11 | 217 | 1.6 | 8.0 | 0.00 | 0.79 | 0.00 | 82 | 1046.9 |
| 20260506060518 | 11 | 151 | 1.6 | 8.0 | 0.00 | 0.79 | 0.00 | 82 | 1046.9 |
| 20260506060418 | 11 | 151 | 1.6 | 8.0 | 0.00 | 0.79 | 0.00 | 84 | 1046.9 |
| 20260506060349 | 11 | 152 | 1.6 | 8.0 | 0.00 | 0.79 | 0.00 | 84 | 1046.8 |
| 20260506060343 | 11 | 150 | 1.6 | 8.0 | 0.00 | 0.79 | 0.00 | 84 | 1046.8 |
| 20260506060333 | 11 | 149 | 3.2 | 8.0 | 0.00 | 0.79 | 0.00 | 84 | 1046.8 |
| 20260506060315 | 10 | 149 | 3.2 | 8.0 | 0.00 | 0.79 | 0.00 | 84 | 1046.8 |
| 20260506050654 | 6 | 159 | 3.2 | 8.0 | 0.00 | 0.79 | 0.00 | 92 | 1046.5 |
| 20260506050643 | 6 | 160 | 3.2 | 8.0 | 0.00 | 0.79 | 0.00 | 92 | 1046.5 |
| 20260506050633 | 6 | 159 | 3.2 | 8.0 | 0.00 | 0.79 | 0.00 | 92 | 1046.5 |
| 20260506050613 | 6 | 160 | 3.2 | 8.0 | 0.00 | 0.79 | 0.00 | 92 | 1046.5 |
| 20260506050603 | 6 | 159 | 3.2 | 8.0 | 0.00 | 0.79 | 0.00 | 92 | 1046.5 |
| 20260506050555 | 6 | 159 | 3.2 | 8.0 | 0.00 | 0.79 | 0.00 | 92 | 1046.4 |
| 20260506050106 | 6 | 160 | 3.2 | 8.0 | 0.00 | 0.79 | 0.00 | 92 | 1046.5 |
| 20260506045005 | 7 | 158 | 3.2 | 9.7 | 0.00 | 0.79 | 0.00 | 92 | 1046.3 |
| 20260506044919 | 7 | 160 | 3.2 | 9.7 | 0.00 | 0.79 | 0.00 | 92 | 1046.3 |
| 20260506044837 | 7 | 159 | 3.2 | 9.7 | 0.00 | 0.79 | 0.00 | 92 | 1046.4 |
| 20260506044830 | 7 | 160 | 3.2 | 9.7 | 0.00 | 0.79 | 0.00 | 92 | 1046.3 |
| 20260506044818 | 7 | 159 | 3.2 | 9.7 | 0.00 | 0.79 | 0.00 | 92 | 1046.3 |
| 20260506044808 | 7 | 159 | 3.2 | 9.7 | 0.00 | 0.79 | 0.00 | 92 | 1046.3 |
| 20260506044538 | 7 | 158 | 3.2 | 9.7 | 0.00 | 0.79 | 0.00 | 92 | 1046.3 |
| 20260506044234 | 7 | 158 | 3.2 | 9.7 | 0.00 | 0.79 | 0.00 | 92 | 1046.2 |
| 20260506044226 | 7 | 159 | 3.2 | 9.7 | 0.00 | 0.79 | 0.00 | 92 | 1046.2 |
| 20260506044203 | 7 | 159 | 4.8 | 9.7 | 0.00 | 0.79 | 0.00 | 92 | 1046.2 |
| 20260506044153 | 7 | 158 | 4.8 | 9.7 | 0.00 | 0.79 | 0.00 | 92 | 1046.2 |
| 20260506043610 | 7 | 158 | 4.8 | 9.7 | 0.00 | 0.79 | 0.00 | 92 | 1046.2 |
| 20260506043538 | 7 | 156 | 4.8 | 9.7 | 0.00 | 0.79 | 0.00 | 92 | 1046.2 |
| 20260506043529 | 7 | 156 | 4.8 | 9.7 | 0.00 | 0.79 | 0.00 | 92 | 1046.2 |
| 20260506043204 | 6 | 155 | 4.8 | 9.7 | 0.00 | 0.79 | 0.00 | 92 | 1046.2 |
| 20260506043105 | 6 | 155 | 4.8 | 9.7 | 0.00 | 0.79 | 0.00 | 92 | 1046.2 |
| 20260506043046 | 6 | 156 | 4.8 | 9.7 | 0.00 | 0.79 | 0.00 | 92 | 1046.2 |
| 20260506043037 | 6 | 155 | 4.8 | 9.7 | 0.00 | 0.79 | 0.00 | 92 | 1046.2 |
| 20260506043029 | 6 | 155 | 4.8 | 9.7 | 0.00 | 0.79 | 0.00 | 92 | 1046.2 |
| 20260506042704 | 7 | 149 | 4.8 | 8.0 | 0.00 | 0.79 | 0.00 | 92 | 1046.2 |
| 20260506042604 | 7 | 149 | 4.8 | 8.0 | 0.00 | 0.79 | 0.00 | 92 | 1046.2 |
| 20260506042509 | 7 | 149 | 4.8 | 8.0 | 0.00 | 0.79 | 0.00 | 92 | 1046.1 |
| 20260506042500 | 7 | 149 | 4.8 | 8.0 | 0.00 | 0.79 | 0.00 | 92 | 1046.1 |
| 20260506042404 | 7 | 149 | 4.8 | 8.0 | 0.00 | 0.79 | 0.00 | 92 | 1046.1 |
| 20260506042305 | 7 | 149 | 4.8 | 8.0 | 0.00 | 0.79 | 0.00 | 92 | 1046.1 |
| 20260506042204 | 7 | 148 | 4.8 | 8.0 | 0.00 | 0.79 | 0.00 | 92 | 1046.1 |
| 20260506042105 | 7 | 149 | 4.8 | 9.7 | 0.00 | 0.79 | 0.00 | 92 | 1046.1 |
| 20260506042011 | 7 | 149 | 4.8 | 9.7 | 0.00 | 0.79 | 0.00 | 92 | 1046.1 |
| 20260506042001 | 7 | 149 | 4.8 | 9.7 | 0.00 | 0.79 | 0.00 | 92 | 1046.1 |
| 20260506041903 | 7 | 149 | 4.8 | 9.7 | 0.00 | 0.79 | 0.00 | 92 | 1046.1 |
| 20260506041803 | 7 | 149 | 4.8 | 9.7 | 0.00 | 0.79 | 0.00 | 92 | 1046.1 |
| 20260506041704 | 7 | 149 | 4.8 | 9.7 | 0.00 | 0.79 | 0.00 | 92 | 1046.1 |
| 20260506041645 | 7 | 149 | 4.8 | 9.7 | 0.00 | 0.79 | 0.00 | 92 | 1046.1 |
| 20260506041639 | 7 | 149 | 4.8 | 9.7 | 0.00 | 0.79 | 0.00 | 92 | 1046.1 |
| 20260506041629 | 7 | 149 | 4.8 | 9.7 | 0.00 | 0.79 | 0.00 | 92 | 1046.1 |
| 20260506041303 | 7 | 149 | 4.8 | 9.7 | 0.00 | 0.79 | 0.00 | 92 | 1046.1 |
| 20260506041203 | 7 | 149 | 4.8 | 9.7 | 0.00 | 0.79 | 0.00 | 92 | 1046.2 |
| 20260506041104 | 7 | 147 | 4.8 | 8.0 | 0.00 | 0.79 | 0.00 | 92 | 1046.2 |
| 20260506041029 | 7 | 147 | 4.8 | 8.0 | 0.00 | 0.79 | 0.00 | 91 | 1046.1 |
| 20260506041017 | 7 | 147 | 4.8 | 8.0 | 0.00 | 0.79 | 0.00 | 91 | 1046.1 |
| 20260506040956 | 7 | 147 | 4.8 | 8.0 | 0.00 | 0.79 | 0.00 | 91 | 1046.2 |
| 20260506040948 | 7 | 147 | 4.8 | 8.0 | 0.00 | 0.79 | 0.00 | 91 | 1046.1 |
| 20260506040940 | 7 | 147 | 4.8 | 8.0 | 0.00 | 0.79 | 0.00 | 91 | 1046.1 |
| 20260506040930 | 7 | 147 | 4.8 | 6.4 | 0.00 | 0.79 | 0.00 | 92 | 1046.2 |
| 20260506040918 | 7 | 146 | 4.8 | 6.4 | 0.00 | 0.79 | 0.00 | 92 | 1046.1 |
| 20260506040637 | 7 | 144 | 4.8 | 6.4 | 0.00 | 0.79 | 0.00 | 91 | 1046.1 |
| 20260506040058 | 7 | 143 | 4.8 | 6.4 | 0.00 | 0.79 | 0.00 | 91 | 1046.1 |
| 20260506040036 | 7 | 143 | 4.8 | 6.4 | 0.00 | 0.79 | 0.00 | 91 | 1046.1 |
| 20260506040028 | 7 | 141 | 3.2 | 6.4 | 0.00 | 0.79 | 0.00 | 91 | 1046.1 |
| 20260506035656 | 7 | 139 | 3.2 | 6.4 | 0.00 | 0.79 | 0.00 | 91 | 1046.0 |
| 20260506035556 | 7 | 139 | 3.2 | 6.4 | 0.00 | 0.79 | 0.00 | 91 | 1046.1 |
| 20260506035456 | 7 | 140 | 3.2 | 6.4 | 0.00 | 0.79 | 0.00 | 91 | 1046.1 |
| 20260506035402 | 7 | 140 | 3.2 | 6.4 | 0.00 | 0.79 | 0.00 | 91 | 1046.1 |
| 20260506035352 | 7 | 139 | 3.2 | 6.4 | 0.00 | 0.79 | 0.00 | 91 | 1046.1 |
| 20260506035343 | 7 | 139 | 3.2 | 4.8 | 0.00 | 0.79 | 0.00 | 91 | 1046.1 |
| 20260506035331 | 7 | 139 | 3.2 | 4.8 | 0.00 | 0.79 | 0.00 | 91 | 1046.0 |
| 20260506035310 | 7 | 139 | 1.6 | 4.8 | 0.00 | 0.79 | 0.00 | 91 | 1046.0 |
| 20260506035305 | 7 | 139 | 1.6 | 4.8 | 0.00 | 0.79 | 0.00 | 91 | 1046.1 |
| 20260506035254 | 7 | 139 | 3.2 | 4.8 | 0.00 | 0.79 | 0.00 | 91 | 1046.1 |
| 20260506035247 | 7 | 139 | 3.2 | 4.8 | 0.00 | 0.79 | 0.00 | 91 | 1046.1 |
| 20260506035007 | 7 | 139 | 3.2 | 4.8 | 0.00 | 0.79 | 0.00 | 91 | 1046.1 |
| 20260506034959 | 7 | 139 | 3.2 | 4.8 | 0.00 | 0.79 | 0.00 | 91 | 1046.1 |
| 20260506034734 | 7 | 139 | 3.2 | 4.8 | 0.00 | 0.79 | 0.00 | 91 | 1046.0 |
| 20260506034726 | 7 | 139 | 3.2 | 4.8 | 0.00 | 0.79 | 0.00 | 91 | 1046.0 |
| 20260506034715 | 7 | 139 | 3.2 | 4.8 | 0.00 | 0.79 | 0.00 | 91 | 1046.0 |
| 20260506034449 | 7 | 139 | 3.2 | 4.8 | 0.00 | 0.79 | 0.00 | 91 | 1046.0 |
| 20260506034435 | 7 | 139 | 3.2 | 4.8 | 0.00 | 0.79 | 0.00 | 91 | 1046.0 |
| 20260506033725 | 7 | 139 | 1.6 | 4.8 | 0.00 | 0.79 | 0.00 | 91 | 1046.0 |
| 20260506033714 | 7 | 139 | 1.6 | 4.8 | 0.00 | 0.79 | 0.00 | 91 | 1046.0 |
| 20260506033702 | 7 | 139 | 1.6 | 4.8 | 0.00 | 0.79 | 0.00 | 91 | 1046.0 |
| 20260506033439 | 7 | 138 | 1.6 | 4.8 | 0.00 | 0.79 | 0.00 | 91 | 1045.9 |
| 20260506032842 | 7 | 139 | 0.0 | 3.2 | 0.00 | 0.79 | 0.00 | 91 | 1045.9 |
| 20260506032743 | 7 | 139 | 0.0 | 3.2 | 0.00 | 0.79 | 0.00 | 91 | 1045.9 |
| 20260506032721 | 7 | 139 | 0.0 | 3.2 | 0.00 | 0.79 | 0.00 | 91 | 1045.9 |
| 20260506032711 | 7 | 139 | 0.0 | 3.2 | 0.00 | 0.79 | 0.00 | 91 | 1045.8 |
| 20260506032701 | 7 | 139 | 0.0 | 3.2 | 0.00 | 0.79 | 0.00 | 91 | 1045.8 |
| 20260506032342 | 7 | 139 | 0.0 | 3.2 | 0.00 | 0.79 | 0.00 | 91 | 1045.9 |
| 20260506032242 | 7 | 139 | 0.0 | 3.2 | 0.00 | 0.79 | 0.00 | 91 | 1045.9 |
| 20260506032226 | 7 | 139 | 1.6 | 3.2 | 0.00 | 0.79 | 0.00 | 91 | 1045.9 |
| 20260506032218 | 7 | 139 | 1.6 | 4.8 | 0.00 | 0.79 | 0.00 | 91 | 1045.8 |
| 20260506032209 | 7 | 139 | 1.6 | 6.4 | 0.00 | 0.79 | 0.00 | 91 | 1045.8 |
| 20260506031838 | 7 | 139 | 1.6 | 6.4 | 0.00 | 0.79 | 0.00 | 91 | 1045.8 |
| 20260506031736 | 7 | 139 | 1.6 | 6.4 | 0.00 | 0.79 | 0.00 | 90 | 1045.8 |
| 20260506031657 | 7 | 139 | 1.6 | 6.4 | 0.00 | 0.79 | 0.00 | 90 | 1045.8 |
| 20260506031648 | 7 | 139 | 1.6 | 6.4 | 0.00 | 0.79 | 0.00 | 90 | 1045.8 |
| 20260506031624 | 7 | 139 | 1.6 | 6.4 | 0.00 | 0.79 | 0.00 | 90 | 1045.8 |
| 20260506031613 | 7 | 139 | 1.6 | 6.4 | 0.00 | 0.79 | 0.00 | 90 | 1045.8 |
| 20260506031032 | 7 | 139 | 0.0 | 6.4 | 0.00 | 0.79 | 0.00 | 90 | 1045.8 |
| 20260506031003 | 7 | 139 | 0.0 | 6.4 | 0.00 | 0.79 | 0.00 | 90 | 1045.8 |
| 20260506030931 | 7 | 139 | 0.0 | 6.4 | 0.00 | 0.79 | 0.00 | 90 | 1045.8 |
| 20260506030832 | 7 | 137 | 0.0 | 0.0 | 0.00 | 0.79 | 0.00 | 90 | 1045.7 |
| 20260506030731 | 7 | 137 | 0.0 | 0.0 | 0.00 | 0.79 | 0.00 | 90 | 1045.7 |
| 20260506030631 | 7 | 138 | 0.0 | 0.0 | 0.00 | 0.79 | 0.00 | 90 | 1045.8 |
| 20260506030531 | 7 | 137 | 0.0 | 0.0 | 0.00 | 0.79 | 0.00 | 90 | 1045.8 |
| 20260506030519 | 7 | 139 | 0.0 | 0.0 | 0.00 | 0.79 | 0.00 | 90 | 1045.8 |
| 20260506030510 | 7 | 137 | 0.0 | 0.0 | 0.00 | 0.79 | 0.00 | 90 | 1045.8 |
| 20260506030501 | 7 | 137 | 0.0 | 0.0 | 0.00 | 0.79 | 0.00 | 90 | 1045.8 |
| 20260506030130 | 8 | 138 | 0.0 | 0.0 | 0.00 | 0.79 | 0.00 | 90 | 1045.8 |
| 20260506030030 | 8 | 137 | 0.0 | 0.0 | 0.00 | 0.79 | 0.00 | 90 | 1045.8 |
| 20260506025929 | 8 | 137 | 0.0 | 0.0 | 0.00 | 0.79 | 0.00 | 90 | 1045.8 |
| 20260506025828 | 8 | 137 | 0.0 | 0.0 | 0.00 | 0.79 | 0.00 | 90 | 1045.8 |
| 20260506025728 | 8 | 138 | 0.0 | 0.0 | 0.00 | 0.79 | 0.00 | 90 | 1045.8 |
| 20260506025630 | 8 | 138 | 0.0 | 0.0 | 0.00 | 0.79 | 0.00 | 90 | 1045.7 |
| 20260506025526 | 8 | 137 | 0.0 | 0.0 | 0.00 | 0.79 | 0.00 | 90 | 1045.7 |
| 20260506025456 | 8 | 137 | 0.0 | 0.0 | 0.00 | 0.79 | 0.00 | 90 | 1045.7 |
| 20260506025426 | 8 | 138 | 0.0 | 0.0 | 0.00 | 0.79 | 0.00 | 90 | 1045.7 |
| 20260506025327 | 8 | 137 | 0.0 | 0.0 | 0.00 | 0.79 | 0.00 | 89 | 1045.7 |
| 20260506025224 | 8 | 138 | 0.0 | 0.0 | 0.00 | 0.79 | 0.00 | 89 | 1045.7 |
| 20260506025124 | 8 | 137 | 0.0 | 0.0 | 0.00 | 0.79 | 0.00 | 89 | 1045.7 |
| 20260506025028 | 8 | 137 | 0.0 | 0.0 | 0.00 | 0.79 | 0.00 | 89 | 1045.7 |
| 20260506025018 | 8 | 137 | 0.0 | 0.0 | 0.00 | 0.79 | 0.00 | 89 | 1045.7 |
| 20260506025009 | 8 | 138 | 0.0 | 0.0 | 0.00 | 0.79 | 0.00 | 89 | 1045.7 |
| 20260506024956 | 8 | 137 | 0.0 | 0.0 | 0.00 | 0.79 | 0.00 | 89 | 1045.6 |
| 20260506024730 | 8 | 137 | 0.0 | 0.0 | 0.00 | 0.79 | 0.00 | 89 | 1045.6 |
| 20260506024718 | 8 | 137 | 0.0 | 0.0 | 0.00 | 0.79 | 0.00 | 89 | 1045.6 |
| 20260506024419 | 8 | 137 | 0.0 | 0.0 | 0.00 | 0.79 | 0.00 | 89 | 1045.6 |
| 20260506024344 | 8 | 137 | 0.0 | 0.0 | 0.00 | 0.79 | 0.00 | 89 | 1045.6 |
| 20260506024336 | 8 | 137 | 0.0 | 0.0 | 0.00 | 0.79 | 0.00 | 89 | 1045.6 |
| 20260506024018 | 8 | 137 | 0.0 | 0.0 | 0.00 | 0.79 | 0.00 | 89 | 1045.6 |
| 20260506023959 | 8 | 138 | 0.0 | 0.0 | 0.00 | 0.79 | 0.00 | 89 | 1045.6 |
| 20260506023916 | 8 | 137 | 0.0 | 0.0 | 0.00 | 0.79 | 0.00 | 88 | 1045.6 |
| 20260506023835 | 8 | 137 | 0.0 | 0.0 | 0.00 | 0.79 | 0.00 | 88 | 1045.6 |
| 20260506023824 | 8 | 137 | 0.0 | 0.0 | 0.00 | 0.79 | 0.00 | 88 | 1045.6 |
| 20260506023816 | 8 | 137 | 0.0 | 0.0 | 0.00 | 0.79 | 0.00 | 88 | 1045.6 |
| 20260506023544 | 8 | 137 | 0.0 | 0.0 | 0.00 | 0.79 | 0.00 | 88 | 1045.6 |
| 20260506023537 | 8 | 137 | 0.0 | 3.2 | 0.00 | 0.79 | 0.00 | 88 | 1045.6 |
| 20260506023527 | 8 | 138 | 0.0 | 3.2 | 0.00 | 0.79 | 0.00 | 88 | 1045.6 |
| 20260506023516 | 8 | 137 | 0.0 | 3.2 | 0.00 | 0.79 | 0.00 | 88 | 1045.6 |
| 20260506023507 | 8 | 138 | 0.0 | 3.2 | 0.00 | 0.79 | 0.00 | 88 | 1045.7 |
| 20260506023452 | 8 | 137 | 0.0 | 3.2 | 0.00 | 0.79 | 0.00 | 87 | 1045.6 |
| 20260506023442 | 8 | 137 | 0.0 | 3.2 | 0.00 | 0.79 | 0.00 | 87 | 1045.6 |
| 20260506023435 | 9 | 138 | 0.0 | 3.2 | 0.00 | 0.79 | 0.00 | 87 | 1045.6 |
| 20260506023156 | 9 | 137 | 1.6 | 4.8 | 0.00 | 0.79 | 0.00 | 88 | 1045.6 |
| 20260506022449 | 9 | 137 | 3.2 | 6.4 | 0.00 | 0.79 | 0.00 | 87 | 1045.6 |
| 20260506022441 | 9 | 139 | 3.2 | 6.4 | 0.00 | 0.79 | 0.00 | 87 | 1045.6 |
| 20260506022117 | 9 | 137 | 3.2 | 6.4 | 0.00 | 0.79 | 0.00 | 87 | 1045.6 |
| 20260506022024 | 9 | 137 | 3.2 | 6.4 | 0.00 | 0.79 | 0.00 | 87 | 1045.6 |
| 20260506021957 | 9 | 137 | 3.2 | 6.4 | 0.00 | 0.79 | 0.00 | 87 | 1045.6 |
| 20260506021916 | 9 | 137 | 3.2 | 6.4 | 0.00 | 0.79 | 0.00 | 87 | 1045.6 |
| 20260506021816 | 9 | 137 | 3.2 | 6.4 | 0.00 | 0.79 | 0.00 | 87 | 1045.6 |
| 20260506021717 | 9 | 137 | 3.2 | 6.4 | 0.00 | 0.79 | 0.00 | 87 | 1045.6 |
| 20260506021656 | 9 | 137 | 3.2 | 6.4 | 0.00 | 0.79 | 0.00 | 87 | 1045.6 |
| 20260506021646 | 9 | 138 | 3.2 | 8.0 | 0.00 | 0.79 | 0.00 | 87 | 1045.6 |
| 20260506021637 | 9 | 138 | 3.2 | 8.0 | 0.00 | 0.79 | 0.00 | 87 | 1045.6 |
| 20260506021312 | 9 | 138 | 3.2 | 8.0 | 0.00 | 0.79 | 0.00 | 87 | 1045.6 |
| 20260506021212 | 9 | 138 | 3.2 | 8.0 | 0.00 | 0.79 | 0.00 | 87 | 1045.6 |
| 20260506021112 | 9 | 138 | 3.2 | 8.0 | 0.00 | 0.79 | 0.00 | 86 | 1045.6 |
| 20260506021053 | 9 | 138 | 3.2 | 8.0 | 0.00 | 0.79 | 0.00 | 86 | 1045.6 |
| 20260506021044 | 9 | 138 | 3.2 | 8.0 | 0.00 | 0.79 | 0.00 | 86 | 1045.6 |
| 20260506021037 | 9 | 138 | 3.2 | 8.0 | 0.00 | 0.79 | 0.00 | 86 | 1045.5 |
| 20260506020711 | 9 | 138 | 3.2 | 8.0 | 0.00 | 0.79 | 0.00 | 86 | 1045.6 |
| 20260506020613 | 9 | 138 | 3.2 | 8.0 | 0.00 | 0.79 | 0.00 | 85 | 1045.6 |
| 20260506020512 | 10 | 281 | 3.2 | 6.4 | 0.00 | 0.79 | 0.00 | 85 | 1045.5 |
| 20260506020457 | 10 | 281 | 3.2 | 6.4 | 0.00 | 0.79 | 0.00 | 85 | 1045.5 |
| 20260506020412 | 10 | 280 | 3.2 | 12.9 | 0.00 | 0.79 | 0.00 | 85 | 1045.5 |
| 20260506020312 | 10 | 281 | 3.2 | 12.9 | 0.00 | 0.79 | 0.00 | 85 | 1045.5 |
| 20260506020212 | 10 | 280 | 3.2 | 12.9 | 0.00 | 0.79 | 0.00 | 85 | 1045.5 |
| 20260506020147 | 10 | 280 | 3.2 | 12.9 | 0.00 | 0.79 | 0.00 | 85 | 1045.5 |
| 20260506020138 | 10 | 281 | 3.2 | 12.9 | 0.00 | 0.79 | 0.00 | 84 | 1045.5 |
| 20260506020128 | 10 | 282 | 3.2 | 12.9 | 0.00 | 0.79 | 0.00 | 84 | 1045.5 |
| 20260506020117 | 10 | 282 | 3.2 | 12.9 | 0.00 | 0.79 | 0.00 | 84 | 1045.4 |
| 20260506015847 | 10 | 281 | 1.6 | 12.9 | 0.00 | 0.79 | 0.00 | 84 | 1045.4 |
| 20260506015512 | 10 | 281 | 1.6 | 12.9 | 0.00 | 0.79 | 0.00 | 84 | 1045.4 |
| 20260506015456 | 10 | 282 | 1.6 | 12.9 | 0.00 | 0.79 | 0.00 | 84 | 1045.4 |
| 20260506015414 | 10 | 292 | 1.6 | 8.0 | 0.00 | 0.79 | 0.00 | 84 | 1045.4 |
| 20260506015312 | 10 | 290 | 1.6 | 8.0 | 0.00 | 0.79 | 0.00 | 85 | 1045.4 |
| 20260506015212 | 10 | 289 | 1.6 | 14.5 | 0.00 | 0.79 | 0.00 | 85 | 1045.4 |
| 20260506015112 | 10 | 289 | 1.6 | 14.5 | 0.00 | 0.79 | 0.00 | 85 | 1045.4 |
| 20260506015012 | 10 | 290 | 1.6 | 14.5 | 0.00 | 0.79 | 0.00 | 85 | 1045.4 |
| 20260506014957 | 10 | 289 | 1.6 | 14.5 | 0.00 | 0.79 | 0.00 | 85 | 1045.4 |
| 20260506014912 | 10 | 290 | 1.6 | 14.5 | 0.00 | 0.79 | 0.00 | 85 | 1045.4 |
| 20260506014845 | 10 | 289 | 3.2 | 14.5 | 0.00 | 0.79 | 0.00 | 85 | 1045.4 |
| 20260506014838 | 10 | 289 | 3.2 | 14.5 | 0.00 | 0.79 | 0.00 | 85 | 1045.4 |
| 20260506014512 | 10 | 289 | 3.2 | 14.5 | 0.00 | 0.79 | 0.00 | 85 | 1045.4 |
| 20260506014457 | 10 | 289 | 3.2 | 14.5 | 0.00 | 0.79 | 0.00 | 85 | 1045.4 |
| 20260506014413 | 10 | 289 | 4.8 | 14.5 | 0.00 | 0.79 | 0.00 | 85 | 1045.4 |
| 20260506014308 | 10 | 289 | 4.8 | 16.1 | 0.00 | 0.79 | 0.00 | 85 | 1045.4 |
| 20260506014209 | 10 | 292 | 4.8 | 16.1 | 0.00 | 0.79 | 0.00 | 85 | 1045.4 |
| 20260506014110 | 10 | 292 | 4.8 | 16.1 | 0.00 | 0.79 | 0.00 | 85 | 1045.2 |
| 20260506014009 | 10 | 292 | 4.8 | 16.1 | 0.00 | 0.79 | 0.00 | 85 | 1045.2 |
| 20260506013956 | 10 | 292 | 4.8 | 16.1 | 0.00 | 0.79 | 0.00 | 85 | 1045.2 |
| 20260506013908 | 10 | 292 | 6.4 | 16.1 | 0.00 | 0.79 | 0.00 | 86 | 1045.2 |
| 20260506013807 | 10 | 292 | 6.4 | 16.1 | 0.00 | 0.79 | 0.00 | 86 | 1045.2 |
| 20260506013708 | 10 | 292 | 6.4 | 16.1 | 0.00 | 0.79 | 0.00 | 86 | 1045.2 |
| 20260506013607 | 10 | 292 | 6.4 | 16.1 | 0.00 | 0.79 | 0.00 | 86 | 1045.2 |
| 20260506013508 | 10 | 290 | 6.4 | 16.1 | 0.00 | 0.79 | 0.00 | 87 | 1045.2 |
| 20260506013457 | 10 | 291 | 6.4 | 16.1 | 0.00 | 0.79 | 0.00 | 87 | 1045.2 |
| 20260506013408 | 10 | 300 | 6.4 | 16.1 | 0.00 | 0.79 | 0.00 | 87 | 1045.2 |
| 20260506013308 | 10 | 317 | 6.4 | 12.9 | 0.00 | 0.79 | 0.00 | 87 | 1045.1 |
| 20260506013208 | 10 | 318 | 4.8 | 12.9 | 0.00 | 0.79 | 0.00 | 88 | 1045.2 |
| 20260506013150 | 9 | 321 | 4.8 | 12.9 | 0.00 | 0.79 | 0.00 | 88 | 1045.2 |
| 20260506013141 | 9 | 320 | 4.8 | 12.9 | 0.00 | 0.79 | 0.00 | 89 | 1045.2 |
| 20260506013130 | 9 | 321 | 4.8 | 12.9 | 0.00 | 0.79 | 0.00 | 89 | 1045.2 |
| 20260506012808 | 9 | 323 | 4.8 | 12.9 | 0.00 | 0.79 | 0.00 | 89 | 1045.2 |
| 20260506012709 | 9 | 304 | 4.8 | 11.3 | 0.00 | 0.79 | 0.00 | 89 | 1045.1 |
| 20260506012608 | 9 | 305 | 3.2 | 11.3 | 0.00 | 0.79 | 0.00 | 90 | 1045.2 |
| 20260506012508 | 9 | 295 | 3.2 | 11.3 | 0.00 | 0.79 | 0.00 | 90 | 1045.2 |
| 20260506012458 | 9 | 295 | 3.2 | 11.3 | 0.00 | 0.79 | 0.00 | 90 | 1045.2 |
| 20260506012407 | 9 | 295 | 3.2 | 8.0 | 0.00 | 0.79 | 0.00 | 90 | 1045.2 |
| 20260506012308 | 9 | 295 | 1.6 | 8.0 | 0.00 | 0.79 | 0.00 | 90 | 1045.1 |
| 20260506012241 | 9 | 295 | 1.6 | 8.0 | 0.00 | 0.79 | 0.00 | 90 | 1045.1 |
| 20260506012233 | 9 | 295 | 1.6 | 8.0 | 0.00 | 0.79 | 0.00 | 90 | 1045.2 |
| 20260506011957 | 9 | 293 | 1.6 | 8.0 | 0.00 | 0.79 | 0.00 | 90 | 1045.2 |
| 20260506011908 | 9 | 295 | 1.6 | 4.8 | 0.00 | 0.79 | 0.00 | 90 | 1045.1 |
| 20260506011809 | 9 | 295 | 1.6 | 3.2 | 0.00 | 0.79 | 0.00 | 90 | 1045.1 |
| 20260506011707 | 9 | 295 | 1.6 | 3.2 | 0.00 | 0.79 | 0.00 | 90 | 1045.2 |
| 20260506011608 | 9 | 295 | 1.6 | 3.2 | 0.00 | 0.79 | 0.00 | 90 | 1045.2 |
| 20260506011508 | 9 | 295 | 1.6 | 3.2 | 0.00 | 0.79 | 0.00 | 90 | 1045.1 |
| 20260506011456 | 9 | 295 | 1.6 | 3.2 | 0.00 | 0.79 | 0.00 | 90 | 1045.1 |
| 20260506011408 | 9 | 295 | 1.6 | 3.2 | 0.00 | 0.79 | 0.00 | 90 | 1045.2 |
| 20260506011307 | 9 | 359 | 1.6 | 3.2 | 0.00 | 0.79 | 0.00 | 90 | 1045.2 |
| 20260506011208 | 9 | 295 | 1.6 | 3.2 | 0.00 | 0.79 | 0.00 | 90 | 1045.2 |
| 20260506011149 | 9 | 295 | 1.6 | 3.2 | 0.00 | 0.79 | 0.00 | 90 | 1045.2 |
| 20260506011139 | 9 | 295 | 1.6 | 4.8 | 0.00 | 0.79 | 0.00 | 90 | 1045.4 |
| 20260506011130 | 9 | 295 | 1.6 | 4.8 | 0.00 | 0.79 | 0.00 | 90 | 1045.4 |
| 20260506010804 | 9 | 295 | 1.6 | 4.8 | 0.00 | 0.79 | 0.00 | 90 | 1045.4 |
| 20260506010704 | 9 | 295 | 1.6 | 4.8 | 0.00 | 0.79 | 0.00 | 90 | 1045.4 |
| 20260506010606 | 9 | 295 | 1.6 | 4.8 | 0.00 | 0.79 | 0.00 | 91 | 1045.4 |
| 20260506010507 | 9 | 295 | 1.6 | 6.4 | 0.00 | 0.79 | 0.00 | 91 | 1045.4 |
| 20260506010456 | 9 | 295 | 1.6 | 6.4 | 0.00 | 0.79 | 0.00 | 91 | 1045.4 |
| 20260506010405 | 9 | 295 | 1.6 | 14.5 | 0.00 | 0.79 | 0.00 | 91 | 1045.4 |
| 20260506010304 | 9 | 294 | 1.6 | 14.5 | 0.00 | 0.79 | 0.00 | 91 | 1045.4 |
| 20260506010227 | 9 | 294 | 1.6 | 14.5 | 0.00 | 0.79 | 0.00 | 91 | 1045.4 |
| 20260506010219 | 9 | 295 | 3.2 | 14.5 | 0.00 | 0.79 | 0.00 | 92 | 1045.4 |
| 20260506010206 | 9 | 295 | 3.2 | 14.5 | 0.00 | 0.79 | 0.00 | 92 | 1045.4 |
| 20260506010157 | 9 | 294 | 3.2 | 14.5 | 0.00 | 0.79 | 0.00 | 92 | 1045.4 |
| 20260506010145 | 9 | 295 | 3.2 | 14.5 | 0.00 | 0.79 | 0.00 | 92 | 1045.4 |
| 20260506005605 | 9 | 294 | 4.8 | 14.5 | 0.00 | 0.79 | 0.00 | 93 | 1045.5 |
| 20260506005506 | 9 | 299 | 3.2 | 14.5 | 0.00 | 0.79 | 0.00 | 93 | 1045.4 |
| 20260506005457 | 9 | 300 | 3.2 | 14.5 | 0.00 | 0.79 | 0.00 | 93 | 1045.4 |
| 20260506005405 | 9 | 273 | 3.2 | 14.5 | 0.00 | 0.79 | 0.00 | 93 | 1045.4 |
| 20260506005336 | 9 | 272 | 3.2 | 14.5 | 0.00 | 0.79 | 0.00 | 93 | 1045.5 |
| 20260506005329 | 9 | 272 | 3.2 | 14.5 | 0.00 | 0.79 | 0.00 | 93 | 1045.4 |
| 20260506005005 | 8 | 273 | 4.8 | 14.5 | 0.00 | 0.79 | 0.00 | 93 | 1045.4 |
| 20260506004956 | 8 | 272 | 4.8 | 14.5 | 0.00 | 0.79 | 0.00 | 93 | 1045.4 |
| 20260506004923 | 8 | 272 | 4.8 | 14.5 | 0.00 | 0.79 | 0.00 | 93 | 1045.4 |
| 20260506004915 | 8 | 306 | 4.8 | 12.9 | 0.00 | 0.79 | 0.00 | 93 | 1045.4 |
| 20260506004857 | 8 | 258 | 4.8 | 14.5 | 0.00 | 0.79 | 0.00 | 93 | 1045.5 |
| 20260506004620 | 8 | 258 | 4.8 | 14.5 | 0.00 | 0.79 | 0.00 | 93 | 1045.5 |
| 20260506004253 | 8 | 258 | 3.2 | 14.5 | 0.00 | 0.79 | 0.00 | 93 | 1045.5 |
| 20260506004153 | 8 | 258 | 3.2 | 14.5 | 0.00 | 0.79 | 0.00 | 93 | 1045.5 |
| 20260506004049 | 8 | 294 | 3.2 | 14.5 | 0.00 | 0.79 | 0.00 | 93 | 1045.5 |
| 20260506004001 | 8 | 294 | 1.6 | 14.5 | 0.00 | 0.79 | 0.00 | 93 | 1045.5 |
| 20260506003948 | 8 | 293 | 1.6 | 14.5 | 0.00 | 0.79 | 0.00 | 93 | 1045.5 |
| 20260506003848 | 8 | 290 | 1.6 | 14.5 | 0.00 | 0.79 | 0.00 | 93 | 1045.5 |
| 20260506003748 | 8 | 287 | 1.6 | 14.5 | 0.00 | 0.79 | 0.00 | 93 | 1045.5 |
| 20260506003647 | 8 | 276 | 1.6 | 4.8 | 0.00 | 0.79 | 0.00 | 93 | 1045.5 |
| 20260506003623 | 8 | 275 | 1.6 | 4.8 | 0.00 | 0.79 | 0.00 | 93 | 1045.5 |
| 20260506003612 | 8 | 275 | 1.6 | 4.8 | 0.00 | 0.79 | 0.00 | 93 | 1045.5 |
| 20260506003605 | 8 | 276 | 1.6 | 4.8 | 0.00 | 0.79 | 0.00 | 93 | 1045.4 |
| 20260506003242 | 8 | 275 | 1.6 | 4.8 | 0.00 | 0.79 | 0.00 | 93 | 1045.5 |
| 20260506003146 | 8 | 276 | 1.6 | 4.8 | 0.00 | 0.79 | 0.00 | 93 | 1045.5 |
| 20260506003136 | 8 | 275 | 1.6 | 6.4 | 0.00 | 0.79 | 0.00 | 93 | 1045.5 |
| 20260506003120 | 8 | 275 | 1.6 | 6.4 | 0.00 | 0.79 | 0.00 | 93 | 1045.5 |
| 20260506003106 | 8 | 275 | 1.6 | 6.4 | 0.00 | 0.79 | 0.00 | 93 | 1045.5 |
| 20260506003100 | 8 | 276 | 1.6 | 6.4 | 0.00 | 0.79 | 0.00 | 93 | 1045.5 |
| 20260506002831 | 8 | 275 | 1.6 | 6.4 | 0.00 | 0.79 | 0.00 | 93 | 1045.6 |
| 20260506002820 | 8 | 276 | 1.6 | 6.4 | 0.00 | 0.79 | 0.00 | 93 | 1045.6 |
| 20260506002553 | 8 | 275 | 0.0 | 6.4 | 0.00 | 0.79 | 0.00 | 93 | 1045.6 |
| 20260506002531 | 8 | 275 | 0.0 | 6.4 | 0.00 | 0.79 | 0.00 | 93 | 1045.6 |
| 20260506002301 | 8 | 276 | 0.0 | 1.6 | 0.00 | 0.79 | 0.00 | 92 | 1045.6 |
| 20260506002253 | 8 | 276 | 0.0 | 3.2 | 0.00 | 0.79 | 0.00 | 92 | 1045.6 |
| 20260506002023 | 8 | 275 | 1.6 | 3.2 | 0.00 | 0.79 | 0.00 | 92 | 1045.7 |
| 20260506002008 | 8 | 275 | 1.6 | 4.8 | 0.00 | 0.79 | 0.00 | 92 | 1045.6 |
| 20260506002000 | 8 | 276 | 1.6 | 4.8 | 0.00 | 0.79 | 0.00 | 93 | 1045.7 |
| 20260506001952 | 8 | 277 | 1.6 | 4.8 | 0.00 | 0.79 | 0.00 | 93 | 1045.7 |
| 20260506001728 | 8 | 275 | 1.6 | 4.8 | 0.00 | 0.79 | 0.00 | 93 | 1045.7 |
| 20260506001719 | 8 | 276 | 1.6 | 4.8 | 0.00 | 0.79 | 0.00 | 93 | 1045.7 |
| 20260506001706 | 8 | 276 | 1.6 | 4.8 | 0.00 | 0.79 | 0.00 | 93 | 1045.7 |
| 20260506001440 | 8 | 276 | 1.6 | 4.8 | 0.00 | 0.79 | 0.00 | 93 | 1045.8 |
| 20260506001431 | 8 | 276 | 1.6 | 4.8 | 0.00 | 0.79 | 0.00 | 93 | 1045.8 |
| 20260506001204 | 8 | 276 | 1.6 | 4.8 | 0.00 | 0.79 | 0.00 | 93 | 1045.8 |
| 20260506001153 | 8 | 276 | 1.6 | 3.2 | 0.00 | 0.79 | 0.00 | 93 | 1045.8 |
| 20260506000924 | 8 | 276 | 0.0 | 3.2 | 0.00 | 0.79 | 0.00 | 92 | 1045.8 |
| 20260506000913 | 8 | 275 | 1.6 | 3.2 | 0.00 | 0.79 | 0.00 | 92 | 1045.9 |
| 20260506000652 | 8 | 276 | 0.0 | 3.2 | 0.00 | 0.79 | 0.00 | 92 | 1045.9 |
| 20260506000204 | 8 | 275 | 1.6 | 4.8 | 0.00 | 0.79 | 0.00 | 92 | 1045.9 |
| 20260505235916 | 8 | 275 | 1.6 | 4.8 | 0.00 | 0.79 | 0.00 | 92 | 1045.9 |
| 20260505235833 | 8 | 276 | 1.6 | 4.8 | 0.00 | 0.79 | 0.00 | 92 | 1046.0 |
| 20260505235827 | 8 | 276 | 1.6 | 4.8 | 0.00 | 0.79 | 0.00 | 92 | 1046.0 |
| 20260505235508 | 8 | 276 | 1.6 | 4.8 | 0.00 | 0.79 | 0.00 | 93 | 1046.0 |
| 20260505235450 | 8 | 276 | 1.6 | 4.8 | 0.00 | 0.79 | 0.00 | 93 | 1046.0 |
| 20260505235443 | 8 | 275 | 1.6 | 4.8 | 0.00 | 0.79 | 0.00 | 93 | 1046.0 |
| 20260505235104 | 8 | 276 | 1.6 | 4.8 | 0.00 | 0.79 | 0.00 | 93 | 1046.0 |
| 20260505235003 | 8 | 276 | 1.6 | 4.8 | 0.00 | 0.79 | 0.00 | 93 | 1046.0 |
| 20260505234941 | 8 | 276 | 1.6 | 4.8 | 0.00 | 0.79 | 0.00 | 93 | 1046.0 |
| 20260505234903 | 8 | 275 | 1.6 | 4.8 | 0.00 | 0.79 | 0.00 | 93 | 1046.0 |
| 20260505234803 | 8 | 276 | 1.6 | 4.8 | 0.00 | 0.79 | 0.00 | 93 | 1046.0 |
| 20260505234704 | 8 | 275 | 3.2 | 4.8 | 0.00 | 0.79 | 0.00 | 93 | 1046.0 |
| 20260505234604 | 8 | 276 | 3.2 | 4.8 | 0.00 | 0.79 | 0.00 | 93 | 1046.0 |
| 20260505234503 | 8 | 276 | 3.2 | 4.8 | 0.00 | 0.79 | 0.00 | 93 | 1046.0 |
| 20260505234440 | 8 | 275 | 3.2 | 4.8 | 0.00 | 0.79 | 0.00 | 93 | 1046.1 |
| 20260505234404 | 8 | 275 | 3.2 | 4.8 | 0.00 | 0.79 | 0.00 | 92 | 1046.1 |
| 20260505234303 | 8 | 276 | 3.2 | 4.8 | 0.00 | 0.79 | 0.00 | 92 | 1046.0 |
| 20260505234219 | 8 | 276 | 3.2 | 4.8 | 0.00 | 0.79 | 0.00 | 92 | 1046.0 |
| 20260505234211 | 8 | 276 | 3.2 | 4.8 | 0.00 | 0.79 | 0.00 | 92 | 1046.1 |
| 20260505234159 | 8 | 275 | 3.2 | 4.8 | 0.00 | 0.79 | 0.00 | 92 | 1046.1 |
| 20260505233903 | 8 | 276 | 3.2 | 4.8 | 0.00 | 0.79 | 0.00 | 92 | 1046.1 |
| 20260505233803 | 8 | 275 | 3.2 | 4.8 | 0.00 | 0.79 | 0.00 | 92 | 1046.1 |
| 20260505233705 | 8 | 276 | 1.6 | 4.8 | 0.00 | 0.79 | 0.00 | 92 | 1046.1 |
| 20260505233604 | 8 | 275 | 1.6 | 4.8 | 0.00 | 0.79 | 0.00 | 92 | 1046.1 |
| 20260505233504 | 8 | 275 | 1.6 | 4.8 | 0.00 | 0.79 | 0.00 | 92 | 1046.1 |
| 20260505233436 | 8 | 276 | 1.6 | 4.8 | 0.00 | 0.79 | 0.00 | 92 | 1046.1 |
| 20260505233404 | 8 | 276 | 1.6 | 4.8 | 0.00 | 0.79 | 0.00 | 92 | 1046.1 |
| 20260505233304 | 8 | 275 | 1.6 | 4.8 | 0.00 | 0.79 | 0.00 | 93 | 1046.1 |
| 20260505233204 | 9 | 275 | 1.6 | 4.8 | 0.00 | 0.79 | 0.00 | 93 | 1046.1 |
| 20260505233109 | 9 | 276 | 1.6 | 3.2 | 0.00 | 0.79 | 0.00 | 93 | 1046.1 |
| 20260505233101 | 9 | 276 | 1.6 | 4.8 | 0.00 | 0.79 | 0.00 | 93 | 1046.1 |
| 20260505233045 | 9 | 276 | 1.6 | 4.8 | 0.00 | 0.79 | 0.00 | 93 | 1046.1 |
| 20260505233029 | 9 | 276 | 0.0 | 4.8 | 0.00 | 0.79 | 0.00 | 93 | 1046.0 |
| 20260505233020 | 9 | 276 | 0.0 | 4.8 | 0.00 | 0.79 | 0.00 | 93 | 1046.0 |
| 20260505232526 | 9 | 276 | 1.6 | 4.8 | 0.00 | 0.79 | 0.00 | 93 | 1046.0 |
| 20260505232518 | 9 | 276 | 1.6 | 4.8 | 0.00 | 0.79 | 0.00 | 93 | 1046.0 |
| 20260505232505 | 9 | 276 | 1.6 | 4.8 | 0.00 | 0.79 | 0.00 | 93 | 1046.0 |
| 20260505232455 | 9 | 276 | 1.6 | 6.4 | 0.00 | 0.79 | 0.00 | 92 | 1046.1 |
| 20260505232447 | 9 | 276 | 1.6 | 6.4 | 0.00 | 0.79 | 0.00 | 92 | 1046.0 |
| 20260505232435 | 9 | 276 | 1.6 | 6.4 | 0.00 | 0.79 | 0.00 | 92 | 1046.0 |
| 20260505232155 | 9 | 275 | 1.6 | 6.4 | 0.00 | 0.79 | 0.00 | 92 | 1046.0 |
| 20260505232146 | 9 | 276 | 1.6 | 6.4 | 0.00 | 0.79 | 0.00 | 92 | 1046.0 |
| 20260505231920 | 9 | 275 | 1.6 | 6.4 | 0.00 | 0.79 | 0.00 | 92 | 1045.9 |
| 20260505231906 | 9 | 275 | 1.6 | 6.4 | 0.00 | 0.79 | 0.00 | 92 | 1045.9 |
| 20260505231852 | 9 | 276 | 1.6 | 6.4 | 0.00 | 0.79 | 0.00 | 92 | 1046.0 |
| 20260505231052 | 9 | 276 | 1.6 | 3.2 | 0.00 | 0.79 | 0.00 | 93 | 1045.9 |
| 20260505230952 | 9 | 275 | 1.6 | 3.2 | 0.00 | 0.79 | 0.00 | 92 | 1045.9 |
| 20260505230933 | 9 | 276 | 1.6 | 3.2 | 0.00 | 0.79 | 0.00 | 92 | 1045.9 |
| 20260505230852 | 9 | 276 | 1.6 | 3.2 | 0.00 | 0.79 | 0.00 | 92 | 1045.9 |
| 20260505230752 | 9 | 275 | 1.6 | 3.2 | 0.00 | 0.79 | 0.00 | 92 | 1045.9 |
| 20260505230653 | 9 | 276 | 1.6 | 3.2 | 0.00 | 0.79 | 0.00 | 93 | 1045.9 |
| 20260505230550 | 9 | 275 | 1.6 | 3.2 | 0.00 | 0.79 | 0.00 | 93 | 1046.0 |
| 20260505230449 | 9 | 275 | 1.6 | 3.2 | 0.00 | 0.79 | 0.00 | 93 | 1045.9 |
| 20260505230432 | 9 | 276 | 1.6 | 3.2 | 0.00 | 0.79 | 0.00 | 93 | 1045.9 |
| 20260505230348 | 9 | 276 | 1.6 | 3.2 | 0.00 | 0.79 | 0.00 | 93 | 1045.9 |
| 20260505230246 | 9 | 275 | 1.6 | 3.2 | 0.00 | 0.79 | 0.00 | 93 | 1045.9 |
| 20260505230146 | 9 | 275 | 1.6 | 4.8 | 0.00 | 0.79 | 0.00 | 93 | 1045.9 |
| 20260505230050 | 9 | 276 | 1.6 | 4.8 | 0.00 | 0.79 | 0.00 | 93 | 1045.9 |
| 20260505230040 | 9 | 276 | 1.6 | 4.8 | 0.00 | 0.79 | 0.00 | 93 | 1045.9 |
| 20260505230031 | 9 | 275 | 1.6 | 4.8 | 0.00 | 0.79 | 0.00 | 93 | 1045.9 |
| 20260505230023 | 9 | 276 | 1.6 | 4.8 | 0.00 | 0.79 | 0.00 | 93 | 1045.9 |
| 20260505230012 | 9 | 275 | 3.2 | 4.8 | 0.00 | 0.79 | 0.00 | 93 | 1045.9 |
| 20260505230004 | 9 | 275 | 3.2 | 6.4 | 0.00 | 0.79 | 0.00 | 93 | 1045.9 |
| 20260505225947 | 9 | 276 | 3.2 | 6.4 | 0.00 | 0.79 | 0.00 | 93 | 1045.9 |
| 20260505225722 | 9 | 276 | 4.8 | 9.7 | 0.00 | 0.79 | 0.00 | 93 | 1045.9 |
| 20260505225225 | 9 | 274 | 4.8 | 9.7 | 0.00 | 0.79 | 0.00 | 93 | 1045.8 |
| 20260505225217 | 9 | 275 | 4.8 | 9.7 | 0.00 | 0.79 | 0.00 | 93 | 1045.9 |
| 20260505224932 | 9 | 276 | 4.8 | 9.7 | 0.00 | 0.79 | 0.00 | 93 | 1045.9 |
| 20260505224905 | 9 | 275 | 4.8 | 9.7 | 0.00 | 0.79 | 0.00 | 93 | 1045.9 |
| 20260505224856 | 9 | 276 | 3.2 | 9.7 | 0.00 | 0.79 | 0.00 | 93 | 1046.0 |
| 20260505224534 | 9 | 275 | 3.2 | 9.7 | 0.00 | 0.79 | 0.00 | 93 | 1045.9 |
| 20260505224441 | 9 | 275 | 1.6 | 9.7 | 0.00 | 0.79 | 0.00 | 93 | 1045.9 |
| 20260505224432 | 9 | 276 | 1.6 | 9.7 | 0.00 | 0.79 | 0.00 | 93 | 1045.9 |
| 20260505224334 | 9 | 275 | 1.6 | 6.4 | 0.00 | 0.79 | 0.00 | 93 | 1045.9 |
| 20260505224233 | 9 | 276 | 1.6 | 4.8 | 0.00 | 0.79 | 0.00 | 93 | 1045.9 |
| 20260505224140 | 9 | 275 | 1.6 | 4.8 | 0.00 | 0.79 | 0.00 | 93 | 1045.9 |
| 20260505224132 | 9 | 275 | 1.6 | 4.8 | 0.00 | 0.79 | 0.00 | 93 | 1045.8 |
| 20260505224117 | 9 | 276 | 1.6 | 4.8 | 0.00 | 0.79 | 0.00 | 93 | 1045.8 |
| 20260505224103 | 9 | 276 | 1.6 | 4.8 | 0.00 | 0.79 | 0.00 | 93 | 1045.8 |
| 20260505224053 | 9 | 276 | 1.6 | 4.8 | 0.00 | 0.79 | 0.00 | 93 | 1045.8 |
| 20260505223822 | 9 | 276 | 3.2 | 6.4 | 0.00 | 0.79 | 0.00 | 93 | 1045.8 |
| 20260505223558 | 9 | 275 | 3.2 | 6.4 | 0.00 | 0.79 | 0.00 | 93 | 1045.8 |
| 20260505223232 | 9 | 275 | 3.2 | 6.4 | 0.00 | 0.79 | 0.00 | 93 | 1045.8 |
| 20260505223132 | 9 | 276 | 3.2 | 6.4 | 0.00 | 0.79 | 0.00 | 93 | 1045.8 |
| 20260505223115 | 9 | 276 | 3.2 | 6.4 | 0.00 | 0.79 | 0.00 | 93 | 1045.8 |
| 20260505223059 | 9 | 275 | 3.2 | 6.4 | 0.00 | 0.79 | 0.00 | 92 | 1045.8 |
| 20260505222731 | 9 | 276 | 1.6 | 6.4 | 0.00 | 0.79 | 0.00 | 92 | 1045.8 |
| 20260505222631 | 9 | 275 | 1.6 | 6.4 | 0.00 | 0.79 | 0.00 | 92 | 1045.8 |
| 20260505222531 | 9 | 278 | 1.6 | 6.4 | 0.00 | 0.79 | 0.00 | 92 | 1045.8 |
| 20260505222436 | 9 | 276 | 1.6 | 4.8 | 0.00 | 0.79 | 0.00 | 92 | 1045.8 |
| 20260505222331 | 9 | 276 | 1.6 | 4.8 | 0.00 | 0.79 | 0.00 | 92 | 1045.9 |
| 20260505222232 | 9 | 275 | 1.6 | 4.8 | 0.00 | 0.79 | 0.00 | 92 | 1045.9 |
| 20260505222132 | 9 | 276 | 1.6 | 4.8 | 0.00 | 0.79 | 0.00 | 92 | 1045.9 |
| 20260505222031 | 9 | 276 | 0.0 | 4.8 | 0.00 | 0.79 | 0.00 | 92 | 1046.0 |
| 20260505221933 | 9 | 276 | 1.6 | 3.2 | 0.00 | 0.79 | 0.00 | 92 | 1046.0 |
| 20260505221833 | 9 | 276 | 0.0 | 3.2 | 0.00 | 0.79 | 0.00 | 92 | 1046.0 |
| 20260505221734 | 9 | 275 | 0.0 | 3.2 | 0.00 | 0.79 | 0.00 | 92 | 1046.0 |
| 20260505221630 | 9 | 276 | 0.0 | 3.2 | 0.00 | 0.79 | 0.00 | 92 | 1046.1 |
| 20260505221531 | 9 | 276 | 0.0 | 3.2 | 0.00 | 0.79 | 0.00 | 92 | 1046.1 |
| 20260505221432 | 9 | 275 | 0.0 | 3.2 | 0.00 | 0.79 | 0.00 | 92 | 1046.1 |
| 20260505221331 | 9 | 275 | 0.0 | 3.2 | 0.00 | 0.79 | 0.00 | 92 | 1046.1 |
| 20260505221230 | 9 | 275 | 0.0 | 3.2 | 0.00 | 0.79 | 0.00 | 92 | 1046.1 |
| 20260505221133 | 9 | 276 | 0.0 | 3.2 | 0.00 | 0.79 | 0.00 | 92 | 1046.2 |
| 20260505221031 | 9 | 276 | 0.0 | 3.2 | 0.00 | 0.79 | 0.00 | 92 | 1046.2 |
| 20260505220933 | 10 | 275 | 0.0 | 4.8 | 0.00 | 0.79 | 0.00 | 92 | 1046.2 |
| 20260505220846 | 10 | 275 | 1.6 | 4.8 | 0.00 | 0.79 | 0.00 | 92 | 1046.3 |
| 20260505220839 | 10 | 276 | 1.6 | 4.8 | 0.00 | 0.79 | 0.00 | 92 | 1046.3 |
| 20260505220826 | 10 | 275 | 1.6 | 4.8 | 0.00 | 0.79 | 0.00 | 92 | 1046.4 |
| 20260505220551 | 10 | 276 | 1.6 | 4.8 | 0.00 | 0.79 | 0.00 | 92 | 1046.4 |
| 20260505220226 | 10 | 276 | 3.2 | 4.8 | 0.00 | 0.79 | 0.00 | 92 | 1046.4 |
| 20260505220212 | 10 | 275 | 3.2 | 4.8 | 0.00 | 0.79 | 0.00 | 92 | 1046.5 |
| 20260505220153 | 10 | 275 | 3.2 | 4.8 | 0.00 | 0.79 | 0.00 | 92 | 1046.5 |
| 20260505215921 | 10 | 276 | 3.2 | 4.8 | 0.00 | 0.79 | 0.79 | 92 | 1046.6 |
| 20260505215821 | 10 | 276 | 3.2 | 6.4 | 0.00 | 0.79 | 0.79 | 92 | 1046.6 |
| 20260505215720 | 10 | 276 | 3.2 | 6.4 | 0.00 | 0.79 | 0.79 | 92 | 1046.6 |
| 20260505215617 | 10 | 276 | 3.2 | 6.4 | 0.00 | 0.79 | 0.79 | 92 | 1046.6 |
| 20260505215512 | 10 | 275 | 4.8 | 6.4 | 0.00 | 0.79 | 0.79 | 92 | 1046.6 |
| 20260505215411 | 10 | 275 | 4.8 | 6.4 | 0.00 | 0.79 | 0.79 | 92 | 1046.6 |
| 20260505215312 | 10 | 276 | 4.8 | 6.4 | 0.00 | 0.79 | 0.79 | 92 | 1046.6 |
| 20260505215211 | 10 | 276 | 4.8 | 6.4 | 0.00 | 0.79 | 0.79 | 92 | 1046.6 |
| 20260505215123 | 10 | 276 | 4.8 | 9.7 | 0.00 | 0.79 | 0.79 | 92 | 1046.6 |
| 20260505215057 | 10 | 275 | 4.8 | 9.7 | 0.00 | 0.79 | 0.79 | 92 | 1046.6 |
| 20260505215048 | 10 | 276 | 4.8 | 9.7 | 0.00 | 0.79 | 0.79 | 92 | 1046.6 |
| 20260505215040 | 10 | 275 | 4.8 | 9.7 | 0.00 | 0.79 | 0.79 | 92 | 1046.6 |
| 20260505214710 | 10 | 276 | 3.2 | 9.7 | 0.00 | 0.79 | 0.79 | 92 | 1046.6 |
| 20260505214611 | 10 | 276 | 3.2 | 9.7 | 0.00 | 0.79 | 0.79 | 92 | 1046.6 |
| 20260505214511 | 10 | 276 | 3.2 | 9.7 | 0.00 | 0.79 | 0.79 | 92 | 1046.5 |
| 20260505214425 | 10 | 275 | 3.2 | 9.7 | 0.00 | 0.79 | 0.79 | 92 | 1046.6 |
| 20260505214411 | 10 | 276 | 3.2 | 9.7 | 0.00 | 0.79 | 0.79 | 92 | 1046.6 |
| 20260505214311 | 10 | 275 | 3.2 | 9.7 | 0.00 | 0.79 | 0.79 | 92 | 1046.6 |
| 20260505214210 | 10 | 276 | 3.2 | 9.7 | 0.00 | 0.79 | 0.79 | 92 | 1046.6 |
| 20260505214109 | 10 | 276 | 3.2 | 6.4 | 0.00 | 0.79 | 0.79 | 92 | 1046.6 |
| 20260505214009 | 10 | 276 | 3.2 | 6.4 | 0.00 | 0.79 | 0.79 | 92 | 1046.6 |
| 20260505213909 | 10 | 276 | 3.2 | 6.4 | 0.00 | 0.79 | 0.79 | 92 | 1046.5 |
| 20260505213803 | 10 | 275 | 3.2 | 6.4 | 0.00 | 0.79 | 0.79 | 92 | 1046.5 |
| 20260505213703 | 10 | 276 | 3.2 | 6.4 | 0.00 | 0.79 | 0.79 | 92 | 1046.6 |
| 20260505213604 | 10 | 275 | 3.2 | 6.4 | 0.00 | 0.79 | 0.79 | 92 | 1046.6 |
| 20260505213505 | 10 | 275 | 3.2 | 6.4 | 0.00 | 0.79 | 0.79 | 92 | 1046.6 |
| 20260505213435 | 10 | 276 | 3.2 | 6.4 | 0.00 | 0.79 | 0.79 | 92 | 1046.6 |
| 20260505213423 | 10 | 276 | 4.8 | 6.4 | 0.00 | 0.79 | 0.79 | 92 | 1046.5 |
| 20260505213102 | 10 | 276 | 4.8 | 6.4 | 0.00 | 0.79 | 0.79 | 92 | 1046.6 |
| 20260505213000 | 10 | 276 | 4.8 | 6.4 | 0.00 | 0.79 | 0.79 | 92 | 1046.6 |
| 20260505212923 | 10 | 275 | 3.2 | 6.4 | 0.00 | 0.79 | 0.79 | 92 | 1046.6 |
| 20260505212858 | 10 | 276 | 3.2 | 6.4 | 0.00 | 0.79 | 0.79 | 92 | 1046.6 |
| 20260505212754 | 10 | 275 | 3.2 | 6.4 | 0.00 | 0.79 | 0.79 | 92 | 1046.5 |
| 20260505212652 | 10 | 275 | 3.2 | 6.4 | 0.00 | 0.79 | 0.79 | 92 | 1046.5 |
| 20260505212550 | 10 | 276 | 3.2 | 6.4 | 0.00 | 0.79 | 0.79 | 92 | 1046.6 |
| 20260505212451 | 10 | 276 | 3.2 | 6.4 | 0.00 | 0.79 | 0.79 | 92 | 1046.6 |
| 20260505212422 | 10 | 275 | 3.2 | 6.4 | 0.00 | 0.79 | 0.79 | 92 | 1046.6 |
| 20260505212350 | 10 | 275 | 3.2 | 6.4 | 0.00 | 0.79 | 0.79 | 92 | 1046.6 |
| 20260505212242 | 10 | 275 | 3.2 | 6.4 | 0.00 | 0.79 | 0.79 | 92 | 1046.6 |
| 20260505212145 | 10 | 276 | 1.6 | 6.4 | 0.00 | 0.79 | 0.79 | 92 | 1046.6 |
| 20260505212047 | 10 | 276 | 1.6 | 4.8 | 0.00 | 0.79 | 0.79 | 92 | 1046.6 |
| 20260505211923 | 10 | 276 | 1.6 | 4.8 | 0.00 | 0.79 | 0.79 | 92 | 1046.6 |
| 20260505211843 | 10 | 275 | 1.6 | 4.8 | 0.00 | 0.79 | 0.79 | 92 | 1046.6 |
| 20260505211743 | 10 | 274 | 1.6 | 4.8 | 0.00 | 0.79 | 0.79 | 92 | 1046.6 |
| 20260505211641 | 10 | 275 | 3.2 | 4.8 | 0.00 | 0.79 | 0.79 | 92 | 1046.7 |
| 20260505211538 | 10 | 275 | 1.6 | 4.8 | 0.00 | 0.79 | 0.79 | 92 | 1046.7 |
| 20260505211440 | 10 | 276 | 1.6 | 4.8 | 0.00 | 0.79 | 0.79 | 92 | 1046.7 |
| 20260505211430 | 10 | 276 | 1.6 | 4.8 | 0.00 | 0.79 | 0.79 | 92 | 1046.7 |
| 20260505211424 | 10 | 275 | 1.6 | 4.8 | 0.00 | 0.79 | 0.79 | 92 | 1046.7 |
| 20260505211415 | 10 | 275 | 1.6 | 4.8 | 0.00 | 0.79 | 0.79 | 92 | 1046.7 |
| 20260505211404 | 10 | 276 | 1.6 | 4.8 | 0.00 | 0.79 | 0.79 | 92 | 1046.7 |
| 20260505210836 | 10 | 276 | 1.6 | 4.8 | 0.00 | 0.79 | 0.79 | 92 | 1046.7 |
| 20260505210732 | 10 | 276 | 1.6 | 4.8 | 0.00 | 0.79 | 0.79 | 92 | 1046.7 |
| 20260505210632 | 10 | 276 | 1.6 | 4.8 | 0.00 | 0.79 | 0.79 | 92 | 1046.7 |
| 20260505210531 | 10 | 275 | 1.6 | 4.8 | 0.00 | 0.79 | 0.79 | 92 | 1046.7 |
| 20260505210433 | 10 | 276 | 1.6 | 4.8 | 0.00 | 0.79 | 0.79 | 92 | 1046.7 |
| 20260505210422 | 10 | 275 | 1.6 | 4.8 | 0.00 | 0.79 | 0.79 | 92 | 1046.7 |
| 20260505210331 | 10 | 276 | 3.2 | 4.8 | 0.00 | 0.79 | 0.79 | 92 | 1046.6 |
| 20260505210309 | 10 | 275 | 3.2 | 6.4 | 0.00 | 0.79 | 0.79 | 92 | 1046.6 |
| 20260505210301 | 10 | 274 | 3.2 | 6.4 | 0.00 | 0.79 | 0.79 | 92 | 1046.6 |
| 20260505205932 | 10 | 276 | 3.2 | 6.4 | 0.00 | 0.79 | 0.79 | 92 | 1046.6 |
| 20260505205923 | 10 | 275 | 3.2 | 6.4 | 0.00 | 0.79 | 0.79 | 92 | 1046.6 |
| 20260505205830 | 10 | 275 | 3.2 | 6.4 | 0.00 | 0.79 | 0.79 | 92 | 1046.5 |
| 20260505205742 | 10 | 276 | 3.2 | 6.4 | 0.00 | 0.79 | 0.79 | 92 | 1046.5 |
| 20260505205731 | 10 | 276 | 4.8 | 6.4 | 0.00 | 0.79 | 0.79 | 92 | 1046.5 |
| 20260505205721 | 10 | 276 | 4.8 | 6.4 | 0.00 | 0.79 | 0.79 | 92 | 1046.5 |
| 20260505205451 | 10 | 276 | 4.8 | 6.4 | 0.00 | 0.79 | 0.79 | 92 | 1046.5 |
| 20260505205440 | 10 | 276 | 3.2 | 6.4 | 0.00 | 0.79 | 0.79 | 92 | 1046.5 |
| 20260505205118 | 10 | 275 | 3.2 | 6.4 | 0.00 | 0.79 | 0.79 | 92 | 1046.6 |
| 20260505205105 | 10 | 276 | 3.2 | 6.4 | 0.00 | 0.79 | 0.79 | 92 | 1046.6 |
| 20260505205049 | 10 | 276 | 3.2 | 6.4 | 0.03 | 0.79 | 0.79 | 92 | 1046.7 |
| 20260505204712 | 10 | 276 | 3.2 | 6.4 | 0.03 | 0.79 | 0.79 | 92 | 1046.6 |
| 20260505204627 | 11 | 275 | 3.2 | 6.4 | 0.03 | 0.79 | 0.79 | 92 | 1046.6 |
| 20260505204617 | 11 | 276 | 3.2 | 4.8 | 0.03 | 0.79 | 0.79 | 92 | 1046.6 |
| 20260505204607 | 11 | 276 | 3.2 | 6.4 | 0.03 | 0.79 | 0.79 | 92 | 1046.5 |
| 20260505204600 | 11 | 275 | 3.2 | 6.4 | 0.03 | 0.79 | 0.79 | 92 | 1046.5 |
| 20260505204544 | 11 | 275 | 3.2 | 6.4 | 0.03 | 0.79 | 0.79 | 92 | 1046.5 |
| 20260505204538 | 11 | 275 | 3.2 | 6.4 | 0.03 | 0.79 | 0.79 | 92 | 1046.5 |
| 20260505204305 | 11 | 276 | 3.2 | 6.4 | 0.03 | 0.79 | 0.79 | 92 | 1046.5 |
| 20260505204034 | 11 | 275 | 3.2 | 6.4 | 0.03 | 0.79 | 0.79 | 92 | 1046.4 |
| 20260505203704 | 11 | 275 | 3.2 | 6.4 | 0.03 | 0.79 | 0.79 | 92 | 1046.4 |
| 20260505203606 | 11 | 276 | 3.2 | 6.4 | 0.03 | 0.79 | 0.79 | 92 | 1046.4 |
| 20260505203504 | 11 | 275 | 3.2 | 6.4 | 0.03 | 0.79 | 0.79 | 92 | 1046.4 |
| 20260505203418 | 11 | 275 | 3.2 | 6.4 | 0.03 | 0.79 | 0.79 | 92 | 1046.4 |
| 20260505203406 | 11 | 276 | 3.2 | 6.4 | 0.03 | 0.79 | 0.79 | 92 | 1046.4 |
| 20260505203304 | 11 | 276 | 3.2 | 4.8 | 0.03 | 0.79 | 0.79 | 92 | 1046.4 |
| 20260505203203 | 11 | 276 | 3.2 | 4.8 | 0.03 | 0.79 | 0.79 | 92 | 1046.3 |
| 20260505203104 | 11 | 276 | 3.2 | 4.8 | 0.03 | 0.79 | 0.79 | 92 | 1046.4 |
| 20260505202937 | 11 | 275 | 3.2 | 4.8 | 0.03 | 0.79 | 0.79 | 92 | 1046.4 |
| 20260505202930 | 11 | 276 | 3.2 | 4.8 | 0.03 | 0.79 | 0.79 | 92 | 1046.4 |
| 20260505202922 | 11 | 275 | 3.2 | 4.8 | 0.03 | 0.79 | 0.79 | 92 | 1046.4 |
| 20260505202907 | 11 | 276 | 3.2 | 4.8 | 0.03 | 0.79 | 0.79 | 92 | 1046.3 |
| 20260505202646 | 11 | 275 | 3.2 | 4.8 | 0.03 | 0.79 | 0.79 | 92 | 1046.2 |
| 20260505202354 | 11 | 275 | 3.2 | 4.8 | 0.03 | 0.79 | 0.79 | 92 | 1046.2 |
| 20260505202252 | 11 | 275 | 3.2 | 4.8 | 0.03 | 0.79 | 0.79 | 92 | 1046.2 |
| 20260505202158 | 11 | 276 | 3.2 | 4.8 | 0.03 | 0.79 | 0.79 | 92 | 1046.2 |
| 20260505202150 | 11 | 275 | 3.2 | 4.8 | 0.03 | 0.79 | 0.79 | 92 | 1046.1 |
| 20260505202143 | 11 | 275 | 3.2 | 4.8 | 0.03 | 0.79 | 0.79 | 92 | 1046.1 |
| 20260505201859 | 11 | 276 | 3.2 | 4.8 | 0.03 | 0.79 | 0.79 | 92 | 1046.1 |
| 20260505201851 | 11 | 276 | 1.6 | 4.8 | 0.03 | 0.79 | 0.79 | 92 | 1046.0 |
| 20260505201844 | 11 | 276 | 1.6 | 4.8 | 0.03 | 0.79 | 0.79 | 92 | 1046.0 |
| 20260505201819 | 11 | 276 | 1.6 | 4.8 | 0.03 | 0.79 | 0.79 | 92 | 1046.0 |
| 20260505201811 | 11 | 276 | 1.6 | 4.8 | 0.03 | 0.79 | 0.79 | 92 | 1046.0 |
| 20260505201545 | 11 | 276 | 1.6 | 4.8 | 0.03 | 0.79 | 0.79 | 92 | 1046.0 |
| 20260505201530 | 11 | 276 | 1.6 | 4.8 | 0.03 | 0.79 | 0.79 | 92 | 1046.0 |
| 20260505200948 | 11 | 276 | 0.0 | 3.2 | 0.03 | 0.79 | 0.79 | 92 | 1046.0 |
| 20260505200934 | 11 | 275 | 0.0 | 4.8 | 0.03 | 0.79 | 0.79 | 92 | 1045.9 |
| 20260505200925 | 11 | 275 | 0.0 | 4.8 | 0.03 | 0.79 | 0.79 | 92 | 1045.9 |
| 20260505200915 | 11 | 276 | 0.0 | 4.8 | 0.03 | 0.79 | 0.79 | 92 | 1046.0 |
| 20260505200549 | 11 | 275 | 1.6 | 4.8 | 0.03 | 0.79 | 0.79 | 92 | 1046.0 |
| 20260505200448 | 11 | 275 | 1.6 | 4.8 | 0.03 | 0.79 | 0.79 | 91 | 1045.9 |
| 20260505200412 | 11 | 275 | 1.6 | 4.8 | 0.03 | 0.79 | 0.79 | 92 | 1045.9 |
| 20260505200351 | 11 | 276 | 1.6 | 4.8 | 0.03 | 0.79 | 0.79 | 92 | 1045.9 |
| 20260505200246 | 11 | 276 | 1.6 | 4.8 | 0.03 | 0.79 | 0.79 | 92 | 1045.9 |
| 20260505200146 | 11 | 276 | 1.6 | 4.8 | 0.03 | 0.79 | 0.79 | 91 | 1045.9 |
| 20260505200108 | 11 | 275 | 1.6 | 4.8 | 0.03 | 0.79 | 0.79 | 91 | 1045.9 |
| 20260505200057 | 11 | 276 | 0.0 | 4.8 | 0.03 | 0.79 | 0.79 | 91 | 1045.9 |
| 20260505200046 | 11 | 276 | 0.0 | 3.2 | 0.03 | 0.79 | 0.79 | 91 | 1045.9 |
| 20260505200037 | 11 | 276 | 1.6 | 3.2 | 0.03 | 0.79 | 0.79 | 91 | 1045.9 |
| 20260505200023 | 11 | 275 | 1.6 | 3.2 | 0.03 | 0.79 | 0.79 | 91 | 1045.8 |
| 20260505195438 | 11 | 276 | 1.6 | 4.8 | 0.03 | 0.79 | 0.79 | 91 | 1045.8 |
| 20260505195412 | 11 | 275 | 1.6 | 4.8 | 0.03 | 0.79 | 0.79 | 91 | 1045.8 |
| 20260505195334 | 11 | 276 | 1.6 | 4.8 | 0.03 | 0.79 | 0.79 | 91 | 1045.8 |
| 20260505195234 | 11 | 275 | 1.6 | 4.8 | 0.03 | 0.79 | 0.79 | 91 | 1045.8 |
| 20260505195202 | 11 | 276 | 1.6 | 4.8 | 0.03 | 0.79 | 0.79 | 91 | 1045.7 |
| 20260505195153 | 11 | 275 | 1.6 | 4.8 | 0.03 | 0.79 | 0.76 | 91 | 1045.8 |
| 20260505194912 | 11 | 276 | 1.6 | 6.4 | 0.00 | 0.76 | 0.76 | 91 | 1045.7 |
| 20260505194832 | 11 | 275 | 3.2 | 6.4 | 0.00 | 0.76 | 0.76 | 91 | 1045.7 |
| 20260505194738 | 11 | 276 | 3.2 | 6.4 | 0.00 | 0.79 | 0.76 | 91 | 1045.7 |
| 20260505194724 | 11 | 275 | 3.2 | 6.4 | 0.00 | 0.79 | 0.76 | 91 | 1045.7 |
| 20260505194718 | 11 | 275 | 3.2 | 6.4 | 0.00 | 0.79 | 0.76 | 91 | 1045.6 |
| 20260505194658 | 11 | 276 | 3.2 | 6.4 | 0.00 | 0.79 | 0.76 | 91 | 1045.7 |
| 20260505194646 | 11 | 276 | 3.2 | 6.4 | 0.00 | 0.79 | 0.76 | 91 | 1045.6 |
| 20260505194638 | 11 | 275 | 4.8 | 6.4 | 0.00 | 0.79 | 0.76 | 91 | 1045.6 |
| 20260505194359 | 11 | 275 | 4.8 | 11.3 | 0.00 | 0.79 | 0.76 | 91 | 1045.6 |
| 20260505193832 | 11 | 276 | 4.8 | 11.3 | 0.00 | 0.81 | 0.76 | 91 | 1045.6 |
| 20260505193802 | 11 | 276 | 4.8 | 11.3 | 0.00 | 0.81 | 0.76 | 91 | 1045.6 |
| 20260505193754 | 11 | 276 | 4.8 | 11.3 | 0.00 | 0.84 | 0.76 | 91 | 1045.5 |
| 20260505193413 | 11 | 276 | 4.8 | 11.3 | 0.00 | 0.86 | 0.76 | 91 | 1045.5 |
| 20260505193326 | 11 | 276 | 4.8 | 11.3 | 0.00 | 0.86 | 0.76 | 91 | 1045.5 |
| 20260505193305 | 11 | 276 | 4.8 | 11.3 | 0.00 | 0.89 | 0.76 | 91 | 1045.4 |
| 20260505193258 | 11 | 275 | 3.2 | 11.3 | 0.00 | 0.89 | 0.76 | 91 | 1045.4 |
| 20260505192911 | 11 | 275 | 3.2 | 9.7 | 0.00 | 0.89 | 0.76 | 91 | 1045.2 |
| 20260505192826 | 11 | 274 | 3.2 | 6.4 | 0.00 | 0.89 | 0.76 | 91 | 1045.4 |
| 20260505192726 | 11 | 274 | 3.2 | 6.4 | 0.00 | 0.91 | 0.76 | 91 | 1045.2 |
| 20260505192626 | 11 | 275 | 3.2 | 6.4 | 0.00 | 0.91 | 0.76 | 91 | 1045.2 |
| 20260505192526 | 11 | 274 | 3.2 | 6.4 | 0.00 | 0.91 | 0.76 | 91 | 1045.2 |
| 20260505192426 | 11 | 274 | 3.2 | 6.4 | 0.00 | 0.94 | 0.76 | 91 | 1045.2 |
| 20260505192410 | 11 | 275 | 3.2 | 6.4 | 0.00 | 0.97 | 0.76 | 91 | 1045.2 |
| 20260505192328 | 11 | 275 | 3.2 | 6.4 | 0.00 | 0.97 | 0.76 | 91 | 1045.1 |
| 20260505192226 | 11 | 274 | 3.2 | 4.8 | 0.00 | 0.99 | 0.76 | 91 | 1045.1 |
| 20260505192126 | 11 | 275 | 3.2 | 6.4 | 0.00 | 0.99 | 0.76 | 91 | 1045.1 |
| 20260505192108 | 11 | 274 | 3.2 | 6.4 | 0.00 | 0.99 | 0.76 | 91 | 1045.0 |
| 20260505192101 | 11 | 275 | 3.2 | 6.4 | 0.00 | 1.02 | 0.76 | 91 | 1045.0 |
| 20260505192052 | 11 | 274 | 3.2 | 6.4 | 0.00 | 1.02 | 0.76 | 91 | 1045.0 |
| 20260505191726 | 11 | 278 | 3.2 | 6.4 | 0.00 | 1.04 | 0.76 | 91 | 1045.0 |
| 20260505191625 | 11 | 275 | 3.2 | 6.4 | 0.00 | 1.04 | 0.76 | 91 | 1044.9 |
| 20260505191606 | 11 | 275 | 3.2 | 6.4 | 0.00 | 1.07 | 0.76 | 91 | 1045.0 |
| 20260505191558 | 11 | 274 | 3.2 | 6.4 | 0.00 | 1.09 | 0.76 | 91 | 1044.9 |
| 20260505191548 | 11 | 275 | 3.2 | 6.4 | 0.00 | 1.09 | 0.76 | 91 | 1044.9 |
| 20260505191311 | 11 | 275 | 3.2 | 6.4 | 0.00 | 1.09 | 0.76 | 91 | 1044.9 |
| 20260505191304 | 11 | 274 | 3.2 | 6.4 | 0.00 | 1.09 | 0.76 | 91 | 1044.9 |
| 20260505191255 | 11 | 275 | 3.2 | 6.4 | 0.00 | 1.09 | 0.76 | 91 | 1044.8 |
| 20260505191012 | 11 | 275 | 3.2 | 6.4 | 0.00 | 1.12 | 0.76 | 91 | 1044.8 |
| 20260505190954 | 11 | 274 | 3.2 | 6.4 | 0.00 | 1.12 | 0.76 | 91 | 1044.8 |
| 20260505190654 | 11 | 275 | 3.2 | 6.4 | 0.00 | 1.12 | 0.76 | 91 | 1044.7 |
| 20260505190644 | 11 | 275 | 3.2 | 6.4 | 0.00 | 1.14 | 0.76 | 91 | 1044.8 |
| 20260505190630 | 11 | 275 | 3.2 | 6.4 | 0.00 | 1.14 | 0.76 | 91 | 1044.7 |
| 20260505190355 | 11 | 275 | 3.2 | 6.4 | 0.00 | 1.14 | 0.76 | 91 | 1044.7 |
| 20260505190347 | 11 | 275 | 3.2 | 6.4 | 0.00 | 1.14 | 0.76 | 91 | 1044.7 |
| 20260505190027 | 11 | 275 | 3.2 | 14.5 | 0.00 | 1.14 | 0.76 | 91 | 1044.6 |
| 20260505185924 | 11 | 274 | 3.2 | 14.5 | 0.00 | 1.14 | 0.76 | 90 | 1044.7 |
| 20260505185910 | 11 | 275 | 3.2 | 14.5 | 0.00 | 1.14 | 0.76 | 90 | 1044.7 |
| 20260505185822 | 11 | 275 | 3.2 | 14.5 | 0.00 | 1.14 | 0.76 | 90 | 1044.7 |
| 20260505185723 | 11 | 274 | 3.2 | 14.5 | 0.00 | 1.14 | 0.76 | 90 | 1044.7 |
| 20260505185622 | 11 | 275 | 3.2 | 14.5 | 0.00 | 1.14 | 0.76 | 90 | 1044.7 |
| 20260505185522 | 11 | 274 | 3.2 | 14.5 | 0.00 | 1.14 | 0.76 | 90 | 1044.6 |
| 20260505185423 | 11 | 275 | 3.2 | 14.5 | 0.00 | 1.14 | 0.76 | 90 | 1044.6 |
| 20260505185412 | 11 | 274 | 3.2 | 14.5 | 0.00 | 1.14 | 0.76 | 90 | 1044.6 |
| 20260505185322 | 11 | 275 | 4.8 | 14.5 | 0.00 | 1.14 | 0.76 | 90 | 1044.6 |
| 20260505185222 | 11 | 274 | 4.8 | 14.5 | 0.00 | 1.14 | 0.76 | 90 | 1044.5 |
| 20260505185121 | 12 | 274 | 4.8 | 17.7 | 0.00 | 1.14 | 0.76 | 90 | 1044.6 |
| 20260505185030 | 12 | 274 | 6.4 | 19.3 | 0.00 | 1.14 | 0.76 | 91 | 1044.6 |
| 20260505184910 | 12 | 274 | 6.4 | 19.3 | 0.00 | 1.14 | 0.76 | 91 | 1044.6 |
| 20260505184852 | 12 | 274 | 6.4 | 19.3 | 0.00 | 1.14 | 0.76 | 91 | 1044.6 |
| 20260505184845 | 12 | 274 | 8.0 | 19.3 | 0.00 | 1.14 | 0.76 | 91 | 1044.6 |
| 20260505184522 | 12 | 275 | 8.0 | 19.3 | 0.00 | 1.14 | 0.76 | 91 | 1044.6 |
| 20260505184410 | 12 | 274 | 6.4 | 19.3 | 0.00 | 1.14 | 0.76 | 91 | 1044.6 |
| 20260505184322 | 12 | 272 | 6.4 | 19.3 | 0.00 | 1.14 | 0.76 | 91 | 1044.5 |
| 20260505184222 | 12 | 326 | 6.4 | 19.3 | 0.00 | 1.14 | 0.76 | 91 | 1044.4 |
| 20260505184122 | 12 | 322 | 4.8 | 19.3 | 0.00 | 1.14 | 0.76 | 91 | 1044.5 |
| 20260505184101 | 12 | 303 | 4.8 | 16.1 | 0.00 | 1.14 | 0.76 | 91 | 1044.2 |
| 20260505184053 | 12 | 120 | 4.8 | 16.1 | 0.00 | 1.14 | 0.76 | 91 | 1044.1 |
| 20260505184043 | 12 | 119 | 4.8 | 16.1 | 0.00 | 1.14 | 0.76 | 91 | 1044.1 |
| 20260505183748 | 12 | 143 | 3.2 | 9.7 | 0.00 | 1.14 | 0.76 | 91 | 1044.6 |
| 20260505183737 | 12 | 269 | 3.2 | 6.4 | 0.00 | 1.14 | 0.76 | 91 | 1044.9 |
| 20260505183727 | 12 | 268 | 3.2 | 6.4 | 0.00 | 1.14 | 0.76 | 91 | 1044.9 |
| 20260505183456 | 12 | 270 | 3.2 | 6.4 | 0.00 | 1.14 | 0.76 | 91 | 1044.9 |
| 20260505183446 | 12 | 270 | 3.2 | 6.4 | 0.00 | 1.14 | 0.76 | 91 | 1044.9 |
| 20260505183122 | 12 | 270 | 3.2 | 6.4 | 0.00 | 1.14 | 0.76 | 91 | 1044.8 |
| 20260505183031 | 12 | 270 | 3.2 | 6.4 | 0.00 | 1.14 | 0.76 | 91 | 1044.8 |
| 20260505182910 | 12 | 270 | 3.2 | 6.4 | 0.00 | 1.14 | 0.76 | 91 | 1044.8 |
| 20260505182818 | 12 | 270 | 3.2 | 4.8 | 0.00 | 1.14 | 0.76 | 91 | 1044.8 |
| 20260505182718 | 12 | 270 | 3.2 | 4.8 | 0.00 | 1.14 | 0.76 | 91 | 1044.8 |
| 20260505182651 | 12 | 270 | 3.2 | 4.8 | 0.00 | 1.14 | 0.76 | 91 | 1044.9 |
| 20260505182641 | 12 | 272 | 3.2 | 4.8 | 0.00 | 1.14 | 0.76 | 91 | 1044.9 |
| 20260505182630 | 12 | 270 | 3.2 | 4.8 | 0.00 | 1.14 | 0.76 | 91 | 1044.9 |
| 20260505182318 | 12 | 270 | 3.2 | 4.8 | 0.00 | 1.14 | 0.76 | 91 | 1044.9 |
| 20260505182218 | 12 | 270 | 3.2 | 4.8 | 0.00 | 1.14 | 0.76 | 91 | 1045.0 |
| 20260505182146 | 12 | 270 | 3.2 | 4.8 | 0.00 | 1.14 | 0.76 | 91 | 1045.0 |
| 20260505182139 | 12 | 270 | 3.2 | 4.8 | 0.00 | 1.14 | 0.76 | 91 | 1045.0 |
| 20260505182121 | 12 | 270 | 3.2 | 4.8 | 0.00 | 1.14 | 0.76 | 91 | 1045.0 |
| 20260505181818 | 12 | 269 | 3.2 | 4.8 | 0.00 | 1.14 | 0.76 | 91 | 1045.0 |
| 20260505181718 | 12 | 299 | 3.2 | 4.8 | 0.00 | 1.14 | 0.76 | 91 | 1045.0 |
| 20260505181620 | 12 | 298 | 3.2 | 4.8 | 0.00 | 1.14 | 0.76 | 91 | 1045.1 |
| 20260505181518 | 12 | 298 | 3.2 | 4.8 | 0.05 | 1.14 | 0.76 | 91 | 1045.1 |
| 20260505181407 | 12 | 298 | 3.2 | 4.8 | 0.05 | 1.14 | 0.76 | 91 | 1045.2 |